DW8421 Weather Reports


Display with metric or nautical units.
time (UTC)temp
F
wind
direction
speed
MPH
gust
MPH
rain 1hr
in
rain 24hr
in
rain mn
in
humidity
%
barometer
mb
20190424142503 75 311 3.0 7.0 0.00 0.00 0.00 58 1015.4
20190424142404 75 303 3.0 7.0 0.00 0.00 0.00 57 1015.4
20190424142304 75 298 3.0 7.0 0.00 0.00 0.00 58 1015.5
20190424142203 75 294 3.0 7.0 0.00 0.00 0.00 58 1015.5
20190424142103 75 288 3.0 7.0 0.00 0.00 0.00 58 1015.6
20190424142004 75 282 3.0 7.0 0.00 0.00 0.00 57 1015.6
20190424141903 75 277 3.0 6.0 0.00 0.00 0.00 59 1015.6
20190424141804 75 277 3.0 6.0 0.00 0.00 0.00 58 1015.6
20190424141703 75 277 3.0 6.0 0.00 0.00 0.00 57 1015.6
20190424141603 75 277 3.0 6.0 0.00 0.00 0.00 57 1015.6
20190424141504 75 279 2.0 6.0 0.00 0.00 0.00 60 1015.6
20190424141404 75 279 2.0 6.0 0.00 0.00 0.00 60 1015.7
20190424141303 75 278 3.0 6.0 0.00 0.00 0.00 59 1015.7
20190424141203 74 284 2.0 7.0 0.00 0.00 0.00 57 1015.7
20190424141103 74 293 2.0 7.0 0.00 0.00 0.00 60 1015.7
20190424141004 74 296 2.0 7.0 0.00 0.00 0.00 60 1015.7
20190424140903 74 298 2.0 7.0 0.00 0.00 0.00 58 1015.7
20190424140803 74 294 2.0 7.0 0.00 0.00 0.00 61 1015.7
20190424140703 74 296 2.0 7.0 0.00 0.00 0.00 60 1015.7
20190424140604 74 292 2.0 7.0 0.00 0.00 0.00 59 1015.7
20190424140504 74 291 2.0 7.0 0.00 0.00 0.00 59 1015.7
20190424140403 74 297 2.0 7.0 0.00 0.00 0.00 59 1015.7
20190424140303 74 299 2.0 7.0 0.00 0.00 0.00 60 1015.7
20190424140204 74 293 2.0 4.0 0.00 0.00 0.00 61 1015.7
20190424140104 74 297 2.0 4.0 0.00 0.00 0.00 62 1015.6
20190424140003 74 297 2.0 4.0 0.00 0.00 0.00 60 1015.7
20190424135904 74 297 2.0 4.0 0.00 0.00 0.00 61 1015.6
20190424135803 73 302 2.0 5.0 0.00 0.00 0.00 62 1015.7
20190424135703 73 302 2.0 5.0 0.00 0.00 0.00 63 1015.6
20190424135603 73 308 2.0 5.0 0.00 0.00 0.00 61 1015.6
20190424135504 73 308 2.0 5.0 0.00 0.00 0.00 63 1015.6
20190424135404 73 305 2.0 5.0 0.00 0.00 0.00 62 1015.6
20190424135303 73 307 2.0 8.0 0.00 0.00 0.00 62 1015.6
20190424135203 73 305 2.0 8.0 0.00 0.00 0.00 61 1015.6
20190424135103 73 296 2.0 8.0 0.00 0.00 0.00 61 1015.7
20190424135004 72 296 3.0 8.0 0.00 0.00 0.00 61 1015.6
20190424134903 72 295 2.0 8.0 0.00 0.00 0.00 61 1015.6
20190424134803 72 293 3.0 8.0 0.00 0.00 0.00 62 1015.6
20190424134703 72 290 3.0 8.0 0.00 0.00 0.00 62 1015.6
20190424134603 72 292 3.0 8.0 0.00 0.00 0.00 64 1015.7
20190424134504 72 293 3.0 8.0 0.00 0.00 0.00 60 1015.7
20190424134403 72 290 2.0 8.0 0.00 0.00 0.00 60 1015.6
20190424134303 72 282 2.0 6.0 0.00 0.00 0.00 63 1015.6
20190424134203 72 277 2.0 6.0 0.00 0.00 0.00 62 1015.7
20190424134104 72 281 2.0 6.0 0.00 0.00 0.00 63 1015.7
20190424134004 72 275 2.0 6.0 0.00 0.00 0.00 62 1015.7
20190424133903 72 275 2.0 6.0 0.00 0.00 0.00 62 1015.7
20190424133803 72 282 2.0 6.0 0.00 0.00 0.00 61 1015.7
20190424133704 72 289 2.0 4.0 0.00 0.00 0.00 62 1015.7
20190424133603 72 293 2.0 6.0 0.00 0.00 0.00 63 1015.7
20190424133505 72 296 2.0 6.0 0.00 0.00 0.00 65 1015.7
20190424133404 72 309 2.0 6.0 0.00 0.00 0.00 65 1015.7
20190424133304 71 313 2.0 6.0 0.00 0.00 0.00 67 1015.6
20190424133203 71 315 2.0 6.0 0.00 0.00 0.00 67 1015.6
20190424133103 71 314 2.0 6.0 0.00 0.00 0.00 64 1015.6
20190424133004 71 315 2.0 6.0 0.00 0.00 0.00 64 1015.6
20190424132903 71 316 2.0 6.0 0.00 0.00 0.00 64 1015.6
20190424132803 70 315 2.0 6.0 0.00 0.00 0.00 63 1015.6
20190424132703 70 313 2.0 6.0 0.00 0.00 0.00 64 1015.6
20190424132604 70 308 2.0 6.0 0.00 0.00 0.00 64 1015.6
20190424132504 70 302 2.0 6.0 0.00 0.00 0.00 65 1015.6
20190424132403 70 294 2.0 6.0 0.00 0.00 0.00 64 1015.5
20190424132304 70 288 2.0 5.0 0.00 0.00 0.00 64 1015.5
20190424132204 70 286 2.0 5.0 0.00 0.00 0.00 64 1015.5
20190424132103 70 278 2.0 5.0 0.00 0.00 0.00 64 1015.6
20190424132004 70 277 1.0 5.0 0.00 0.00 0.00 63 1015.5
20190424131904 70 276 2.0 5.0 0.00 0.00 0.00 64 1015.4
20190424131803 70 281 1.0 5.0 0.00 0.00 0.00 64 1015.5
20190424131703 70 287 1.0 5.0 0.00 0.00 0.00 65 1015.5
20190424131603 70 289 1.0 5.0 0.00 0.00 0.00 64 1015.5
20190424131504 70 298 1.0 5.0 0.00 0.00 0.00 66 1015.5
20190424131403 70 305 1.0 3.0 0.00 0.00 0.00 64 1015.5
20190424131304 70 310 1.0 3.0 0.00 0.00 0.00 65 1015.5
20190424131204 70 313 1.0 3.0 0.00 0.00 0.00 65 1015.5
20190424131103 70 319 1.0 3.0 0.00 0.00 0.00 65 1015.5
20190424131004 70 310 1.0 3.0 0.00 0.00 0.00 65 1015.5
20190424130903 70 305 1.0 4.0 0.00 0.00 0.00 66 1015.6
20190424130804 70 292 2.0 5.0 0.00 0.00 0.00 67 1015.5
20190424130704 69 283 2.0 5.0 0.00 0.00 0.00 66 1015.5
20190424130603 69 286 2.0 5.0 0.00 0.00 0.00 66 1015.6
20190424130503 69 288 2.0 5.0 0.00 0.00 0.00 65 1015.6
20190424130404 69 287 2.0 5.0 0.00 0.00 0.00 66 1015.6
20190424130305 69 287 2.0 5.0 0.00 0.00 0.00 66 1015.6
20190424130204 69 290 2.0 5.0 0.00 0.00 0.00 66 1015.6
20190424130103 69 292 1.0 5.0 0.00 0.00 0.00 65 1015.5
20190424130004 69 296 1.0 5.0 0.00 0.00 0.00 65 1015.5
20190424125904 70 297 1.0 5.0 0.00 0.00 0.00 64 1015.4
20190424125804 70 317 1.0 3.0 0.00 0.00 0.00 65 1015.4
20190424125703 70 337 1.0 3.0 0.00 0.00 0.00 66 1015.4
20190424125603 70 338 1.0 3.0 0.00 0.00 0.00 67 1015.4
20190424125504 70 337 1.0 3.0 0.00 0.00 0.00 66 1015.4
20190424125404 70 340 1.0 3.0 0.00 0.00 0.00 68 1015.3
20190424125303 70 341 1.0 3.0 0.00 0.00 0.00 68 1015.3
20190424125203 70 347 1.0 3.0 0.00 0.00 0.00 66 1015.4
20190424125103 69 339 1.0 3.0 0.00 0.00 0.00 67 1015.4
20190424125004 69 335 1.0 3.0 0.00 0.00 0.00 67 1015.3
20190424124903 69 339 1.0 3.0 0.00 0.00 0.00 68 1015.4
20190424124803 69 335 1.0 4.0 0.00 0.00 0.00 68 1015.3
20190424124703 69 332 1.0 4.0 0.00 0.00 0.00 70 1015.3
20190424124603 68 331 1.0 4.0 0.00 0.00 0.00 68 1015.4
20190424124504 68 330 1.0 4.0 0.00 0.00 0.00 71 1015.4
20190424124403 68 327 1.0 4.0 0.00 0.00 0.00 70 1015.4
20190424124303 68 326 1.0 4.0 0.00 0.00 0.00 69 1015.4
20190424124203 68 327 1.0 4.0 0.00 0.00 0.00 69 1015.4
20190424124103 68 330 1.0 4.0 0.00 0.00 0.00 71 1015.4
20190424124004 67 326 1.0 4.0 0.00 0.00 0.00 70 1015.4
20190424123903 67 318 1.0 4.0 0.00 0.00 0.00 69 1015.3
20190424123803 67 320 1.0 3.0 0.00 0.00 0.00 70 1015.3
20190424123703 67 324 1.0 3.0 0.00 0.00 0.00 72 1015.3
20190424123604 67 325 1.0 3.0 0.00 0.00 0.00 72 1015.3
20190424123503 66 332 1.0 3.0 0.00 0.00 0.00 73 1015.3
20190424123403 66 334 1.0 3.0 0.00 0.00 0.00 73 1015.3
20190424123304 66 337 1.0 3.0 0.00 0.00 0.00 73 1015.3
20190424123204 66 340 1.0 3.0 0.00 0.00 0.00 73 1015.3
20190424123104 66 340 1.0 3.0 0.00 0.00 0.00 73 1015.3
20190424123003 65 342 1.0 3.0 0.00 0.00 0.00 73 1015.3
20190424122904 65 343 1.0 3.0 0.00 0.00 0.00 74 1015.3
20190424122804 65 348 1.0 2.0 0.00 0.00 0.00 74 1015.3
20190424122704 65 349 1.0 2.0 0.00 0.00 0.00 74 1015.3
20190424122603 65 349 0.0 2.0 0.00 0.00 0.00 76 1015.3
20190424122504 65 343 0.0 2.0 0.00 0.00 0.00 75 1015.2
20190424122403 65 341 0.0 2.0 0.00 0.00 0.00 75 1015.3
20190424122303 65 314 0.0 2.0 0.00 0.00 0.00 76 1015.3
20190424122203 65 220 0.0 1.0 0.00 0.00 0.00 76 1015.3
20190424122103 65 223 0.0 1.0 0.00 0.00 0.00 75 1015.3
20190424122004 65 291 0.0 2.0 0.00 0.00 0.00 74 1015.3
20190424121903 65 307 0.0 2.0 0.00 0.00 0.00 75 1015.3
20190424121803 64 308 0.0 2.0 0.00 0.00 0.00 75 1015.3
20190424121704 64 308 0.0 2.0 0.00 0.00 0.00 76 1015.3
20190424121604 64 312 0.0 2.0 0.00 0.00 0.00 76 1015.3
20190424121503 64 312 0.0 2.0 0.00 0.00 0.00 77 1015.3
20190424121403 64 314 0.0 2.0 0.00 0.00 0.00 77 1015.3
20190424121304 64 318 1.0 2.0 0.00 0.00 0.00 77 1015.3
20190424121204 64 320 1.0 2.0 0.00 0.00 0.00 76 1015.3
20190424121103 64 320 1.0 2.0 0.00 0.00 0.00 77 1015.3
20190424121004 64 327 0.0 2.0 0.00 0.00 0.00 77 1015.3
20190424120904 64 334 0.0 2.0 0.00 0.00 0.00 76 1015.2
20190424120803 64 334 0.0 2.0 0.00 0.00 0.00 77 1015.2
20190424120703 64 334 0.0 2.0 0.00 0.00 0.00 77 1015.2
20190424120603 64 336 0.0 2.0 0.00 0.00 0.00 77 1015.2
20190424120504 64 337 0.0 2.0 0.00 0.00 0.00 77 1015.1
20190424120404 64 338 0.0 2.0 0.00 0.00 0.00 77 1015.1
20190424120303 64 356 0.0 2.0 0.00 0.00 0.00 77 1015.1
20190424120204 63 93 0.0 2.0 0.00 0.00 0.00 78 1015.0
20190424120104 63 113 0.0 1.0 0.00 0.00 0.00 79 1015.1
20190424120004 63 120 0.0 1.0 0.00 0.00 0.00 79 1015.0
20190424115903 63 124 0.0 1.0 0.00 0.00 0.00 80 1015.0
20190424115804 62 130 0.0 1.0 0.00 0.00 0.00 81 1015.0
20190424115704 62 130 0.0 1.0 0.00 0.00 0.00 82 1015.0
20190424115603 62 110 0.0 1.0 0.00 0.00 0.00 81 1015.0
20190424115504 62 110 0.0 1.0 0.00 0.00 0.00 82 1015.1
20190424115403 62 110 0.0 1.0 0.00 0.00 0.00 81 1015.1
20190424115303 62 101 0.0 1.0 0.00 0.00 0.00 82 1015.1
20190424115203 62 101 0.0 1.0 0.00 0.00 0.00 82 1015.1
20190424115103 61 65 0.0 2.0 0.00 0.00 0.00 81 1015.1
20190424115004 61 63 0.0 2.0 0.00 0.00 0.00 81 1015.0
20190424114903 61 61 0.0 2.0 0.00 0.00 0.00 81 1015.1
20190424114803 61 66 0.0 2.0 0.00 0.00 0.00 82 1015.0
20190424114703 61 94 0.0 2.0 0.00 0.00 0.00 82 1014.9
20190424114603 61 100 0.0 2.0 0.00 0.00 0.00 83 1014.9
20190424114504 61 100 0.0 2.0 0.00 0.00 0.00 83 1014.9
20190424114403 61 100 0.0 2.0 0.00 0.00 0.00 82 1014.9
20190424114303 61 100 0.0 2.0 0.00 0.00 0.00 83 1015.0
20190424114203 61 100 0.0 2.0 0.00 0.00 0.00 83 1015.0
20190424114103 61 152 0.0 2.0 0.00 0.00 0.00 82 1015.0
20190424114004 61 155 0.0 2.0 0.00 0.00 0.00 83 1015.1
20190424113904 60 155 0.0 2.0 0.00 0.00 0.00 83 1015.1
20190424113803 60 194 0.0 1.0 0.00 0.00 0.00 82 1015.2
20190424113704 60 0 0.0 0.0 0.00 0.00 0.00 82 1015.2
20190424113604 60 0 0.0 0.0 0.00 0.00 0.00 83 1015.2
20190424113503 60 0 0.0 0.0 0.00 0.00 0.00 83 1015.1
20190424113403 60 0 0.0 0.0 0.00 0.00 0.00 83 1015.0
20190424113304 60 0 0.0 0.0 0.00 0.00 0.00 83 1015.0
20190424113204 60 0 0.0 0.0 0.00 0.00 0.00 83 1015.0
20190424113103 60 0 0.0 0.0 0.00 0.00 0.00 83 1014.9
20190424113004 60 0 0.0 0.0 0.00 0.00 0.00 83 1014.9
20190424112904 60 0 0.0 0.0 0.00 0.00 0.00 83 1014.9
20190424112804 60 0 0.0 0.0 0.00 0.00 0.00 83 1014.9
20190424112704 60 0 0.0 0.0 0.00 0.00 0.00 82 1014.9
20190424112603 60 0 0.0 0.0 0.00 0.00 0.00 83 1014.8
20190424112503 60 0 0.0 0.0 0.00 0.00 0.00 82 1014.8
20190424112404 60 0 0.0 0.0 0.00 0.00 0.00 82 1014.8
20190424112305 60 0 0.0 0.0 0.00 0.00 0.00 82 1014.8
20190424112203 60 0 0.0 0.0 0.00 0.00 0.00 82 1014.7
20190424112103 60 0 0.0 0.0 0.00 0.00 0.00 82 1014.7
20190424112004 60 0 0.0 0.0 0.00 0.00 0.00 81 1014.6
20190424111904 60 0 0.0 0.0 0.00 0.00 0.00 82 1014.6
20190424111803 60 0 0.0 0.0 0.00 0.00 0.00 82 1014.5
20190424111703 60 0 0.0 0.0 0.00 0.00 0.00 82 1014.5
20190424111603 60 0 0.0 0.0 0.00 0.00 0.00 81 1014.5
20190424111504 60 0 0.0 0.0 0.00 0.00 0.00 82 1014.5
20190424111404 60 0 0.0 0.0 0.00 0.00 0.00 82 1014.5
20190424111303 60 0 0.0 0.0 0.00 0.00 0.00 82 1014.5
20190424111203 60 0 0.0 0.0 0.00 0.00 0.00 82 1014.5
20190424111103 60 0 0.0 0.0 0.00 0.00 0.00 82 1014.6
20190424111004 61 195 0.0 1.0 0.00 0.00 0.00 82 1014.6
20190424110903 61 194 0.0 1.0 0.00 0.00 0.00 81 1014.6
20190424110803 61 194 0.0 1.0 0.00 0.00 0.00 81 1014.6
20190424110703 61 194 0.0 1.0 0.00 0.00 0.00 80 1014.6
20190424110604 61 194 0.0 1.0 0.00 0.00 0.00 80 1014.6
20190424110504 61 194 0.0 1.0 0.00 0.00 0.00 80 1014.6
20190424110403 61 195 0.0 1.0 0.00 0.00 0.00 80 1014.6
20190424110304 61 195 0.0 1.0 0.00 0.00 0.00 79 1014.6
20190424110206 62 195 0.0 1.0 0.00 0.00 0.00 79 1014.6
20190424110105 62 198 0.0 1.0 0.00 0.00 0.00 77 1014.5
20190424110006 62 200 0.0 1.0 0.00 0.00 0.00 78 1014.5
20190424105905 62 211 0.0 1.0 0.00 0.00 0.00 78 1014.4
20190424105805 62 225 0.0 1.0 0.00 0.00 0.00 77 1014.4
20190424105706 62 225 0.0 1.0 0.00 0.00 0.00 77 1014.4
20190424105606 62 222 0.0 1.0 0.00 0.00 0.00 77 1014.3
20190424105506 62 227 0.0 1.0 0.00 0.00 0.00 77 1014.3
20190424105405 62 236 0.0 1.0 0.00 0.00 0.00 77 1014.4
20190424105305 62 236 0.0 1.0 0.00 0.00 0.00 76 1014.4
20190424105206 62 236 0.0 1.0 0.00 0.00 0.00 76 1014.4
20190424105106 62 235 0.0 1.0 0.00 0.00 0.00 76 1014.4
20190424105006 62 235 0.0 1.0 0.00 0.00 0.00 77 1014.4
20190424104906 62 235 0.0 1.0 0.00 0.00 0.00 75 1014.3
20190424104806 62 231 0.0 1.0 0.00 0.00 0.00 74 1014.3
20190424104706 62 231 0.0 1.0 0.00 0.00 0.00 74 1014.3
20190424104606 62 262 0.0 1.0 0.00 0.00 0.00 75 1014.2
20190424104506 63 0 0.0 0.0 0.00 0.00 0.00 75 1014.2
20190424104406 63 0 0.0 0.0 0.00 0.00 0.00 75 1014.2
20190424104306 63 0 0.0 0.0 0.00 0.00 0.00 74 1014.1
20190424104206 63 324 0.0 1.0 0.00 0.00 0.00 75 1014.2
20190424104106 63 326 0.0 2.0 0.00 0.00 0.00 75 1014.1
20190424104006 63 312 0.0 2.0 0.00 0.00 0.00 74 1014.0
20190424103906 63 309 0.0 2.0 0.00 0.00 0.00 74 1014.1
20190424103806 63 303 0.0 2.0 0.00 0.00 0.00 74 1014.1
20190424103706 63 303 0.0 2.0 0.00 0.00 0.00 73 1014.1
20190424103606 63 303 0.0 2.0 0.00 0.00 0.00 73 1014.1
20190424103506 63 302 0.0 2.0 0.00 0.00 0.00 73 1014.1
20190424103406 63 302 0.0 2.0 0.00 0.00 0.00 73 1014.1
20190424103306 63 302 0.0 2.0 0.00 0.00 0.00 73 1014.1
20190424103206 63 274 0.0 2.0 0.00 0.00 0.00 73 1014.1
20190424103106 63 193 0.0 2.0 0.00 0.00 0.00 73 1014.1
20190424103006 63 91 0.0 2.0 0.00 0.00 0.00 73 1014.1
20190424102906 63 76 0.0 2.0 0.00 0.00 0.00 73 1014.1
20190424102806 63 14 0.0 2.0 0.00 0.00 0.00 74 1014.1
20190424102706 63 11 1.0 2.0 0.00 0.00 0.00 73 1014.1
20190424102606 63 336 1.0 2.0 0.00 0.00 0.00 73 1014.1
20190424102506 63 321 1.0 2.0 0.00 0.00 0.00 73 1014.1
20190424102406 63 326 1.0 2.0 0.00 0.00 0.00 73 1014.1
20190424102306 63 326 1.0 2.0 0.00 0.00 0.00 73 1014.1
20190424102206 63 331 0.0 2.0 0.00 0.00 0.00 73 1014.2
20190424102106 63 322 0.0 2.0 0.00 0.00 0.00 73 1014.1
20190424102007 63 304 0.0 2.0 0.00 0.00 0.00 74 1014.1
20190424101906 63 301 0.0 2.0 0.00 0.00 0.00 74 1014.1
20190424101806 63 309 0.0 2.0 0.00 0.00 0.00 73 1014.1
20190424101706 63 311 0.0 2.0 0.00 0.00 0.00 73 1014.1
20190424101606 63 321 0.0 2.0 0.00 0.00 0.00 73 1014.1
20190424101507 63 350 0.0 1.0 0.00 0.00 0.00 74 1014.1
20190424101406 63 323 0.0 1.0 0.00 0.00 0.00 73 1014.0
20190424101306 63 314 0.0 1.0 0.00 0.00 0.00 73 1014.0
20190424101206 63 309 0.0 1.0 0.00 0.00 0.00 73 1014.0
20190424101105 63 308 0.0 1.0 0.00 0.00 0.00 73 1014.0
20190424101006 63 312 0.0 2.0 0.00 0.00 0.00 73 1013.9
20190424100906 63 310 0.0 2.0 0.00 0.00 0.00 73 1013.9
20190424100806 63 293 0.0 2.0 0.00 0.00 0.00 73 1013.9
20190424100705 63 281 0.0 2.0 0.00 0.00 0.00 73 1013.9
20190424100605 63 281 0.0 2.0 0.00 0.00 0.00 72 1013.9
20190424100506 63 280 0.0 2.0 0.00 0.00 0.00 73 1013.9
20190424100406 63 275 0.0 2.0 0.00 0.00 0.00 72 1013.8
20190424100305 63 273 0.0 2.0 0.00 0.00 0.00 72 1013.9
20190424100205 63 273 0.0 2.0 0.00 0.00 0.00 73 1013.9
20190424100106 63 273 0.0 2.0 0.00 0.00 0.00 72 1013.9
20190424100006 63 244 0.0 2.0 0.00 0.00 0.00 73 1013.9
20190424095906 63 244 0.0 2.0 0.00 0.00 0.00 73 1013.9
20190424095806 63 227 0.0 2.0 0.00 0.00 0.00 72 1013.9
20190424095706 63 277 0.0 2.0 0.00 0.00 0.00 73 1013.8
20190424095606 63 276 0.0 2.0 0.00 0.00 0.00 73 1013.9
20190424095506 63 276 0.0 2.0 0.00 0.00 0.00 73 1013.9
20190424095406 63 273 0.0 2.0 0.00 0.00 0.00 73 1013.9
20190424095306 64 263 0.0 2.0 0.00 0.00 0.00 73 1013.9
20190424095206 64 256 1.0 2.0 0.00 0.00 0.00 73 1013.8
20190424095106 64 272 1.0 4.0 0.00 0.00 0.00 72 1013.9
20190424095007 64 273 1.0 4.0 0.00 0.00 0.00 72 1013.8
20190424094906 64 275 1.0 4.0 0.00 0.00 0.00 72 1013.9
20190424094806 64 275 1.0 4.0 0.00 0.00 0.00 72 1013.8
20190424094706 64 277 1.0 4.0 0.00 0.00 0.00 72 1013.8
20190424094606 64 286 1.0 4.0 0.00 0.00 0.00 72 1013.8
20190424094507 64 284 1.0 4.0 0.00 0.00 0.00 72 1013.9
20190424094406 64 284 1.0 4.0 0.00 0.00 0.00 72 1013.8
20190424094306 64 288 1.0 4.0 0.00 0.00 0.00 72 1013.8
20190424094206 64 289 1.0 4.0 0.00 0.00 0.00 72 1013.8
20190424094106 64 288 1.0 3.0 0.00 0.00 0.00 72 1013.8
20190424094006 64 282 1.0 3.0 0.00 0.00 0.00 71 1013.8
20190424093906 64 282 1.0 3.0 0.00 0.00 0.00 71 1013.8
20190424093806 64 282 1.0 3.0 0.00 0.00 0.00 71 1013.8
20190424093706 64 281 1.0 3.0 0.00 0.00 0.00 71 1013.8
20190424093606 64 274 0.0 3.0 0.00 0.00 0.00 71 1013.8
20190424093506 64 274 0.0 3.0 0.00 0.00 0.00 71 1013.8
20190424093406 64 272 0.0 2.0 0.00 0.00 0.00 71 1013.8
20190424093306 64 268 0.0 2.0 0.00 0.00 0.00 71 1013.9
20190424093206 64 273 0.0 2.0 0.00 0.00 0.00 71 1013.8
20190424093105 64 292 0.0 3.0 0.00 0.00 0.00 71 1013.8
20190424093007 64 297 0.0 3.0 0.00 0.00 0.00 71 1013.8
20190424092906 64 296 0.0 3.0 0.00 0.00 0.00 71 1013.8
20190424092806 64 297 0.0 3.0 0.00 0.00 0.00 71 1013.9
20190424092705 64 295 0.0 3.0 0.00 0.00 0.00 70 1013.9
20190424092605 64 294 0.0 3.0 0.00 0.00 0.00 71 1013.9
20190424092506 64 290 0.0 3.0 0.00 0.00 0.00 71 1013.8
20190424092406 64 288 0.0 3.0 0.00 0.00 0.00 71 1013.8
20190424092306 64 291 0.0 3.0 0.00 0.00 0.00 71 1013.9
20190424092206 64 292 0.0 3.0 0.00 0.00 0.00 70 1013.8
20190424092105 64 291 0.0 3.0 0.00 0.00 0.00 70 1013.8
20190424092006 64 300 0.0 3.0 0.00 0.00 0.00 71 1013.8
20190424091906 64 301 0.0 3.0 0.00 0.00 0.00 70 1013.8
20190424091805 64 301 0.0 3.0 0.00 0.00 0.00 70 1013.8
20190424091705 64 304 0.0 3.0 0.00 0.00 0.00 71 1013.8
20190424091606 64 302 0.0 3.0 0.00 0.00 0.00 70 1013.8
20190424091510 64 312 0.0 3.0 0.00 0.00 0.00 70 1013.8
20190424091406 64 315 0.0 3.0 0.00 0.00 0.00 70 1013.8
20190424091306 64 314 0.0 3.0 0.00 0.00 0.00 70 1013.8
20190424091206 64 311 0.0 3.0 0.00 0.00 0.00 71 1013.8
20190424091106 64 292 0.0 2.0 0.00 0.00 0.00 70 1013.8
20190424091006 64 269 0.0 2.0 0.00 0.00 0.00 71 1013.8
20190424090905 64 263 0.0 3.0 0.00 0.00 0.00 71 1013.8
20190424090806 64 271 0.0 3.0 0.00 0.00 0.00 70 1013.8
20190424090705 64 271 0.0 3.0 0.00 0.00 0.00 70 1013.8
20190424090605 64 271 0.0 3.0 0.00 0.00 0.00 70 1013.7
20190424090506 64 271 0.0 3.0 0.00 0.00 0.00 70 1013.7
20190424090406 64 266 1.0 3.0 0.00 0.00 0.00 70 1013.6
20190424090305 64 274 1.0 4.0 0.00 0.00 0.00 70 1013.7
20190424090205 64 274 1.0 4.0 0.00 0.00 0.00 70 1013.7
20190424090106 64 274 1.0 4.0 0.00 0.00 0.00 70 1013.7
20190424090006 64 277 1.0 4.0 0.00 0.00 0.00 70 1013.8
20190424085905 64 281 0.0 4.0 0.00 0.00 0.00 70 1013.7
20190424085805 64 282 1.0 4.0 0.00 0.00 0.00 70 1013.7
20190424085706 64 286 1.0 4.0 0.00 0.00 0.00 70 1013.7
20190424085606 64 288 1.0 4.0 0.00 0.00 0.00 70 1013.7
20190424085506 64 285 1.0 4.0 0.00 0.00 0.00 70 1013.7
20190424085405 64 291 1.0 4.0 0.00 0.00 0.00 71 1013.7
20190424085305 64 294 1.0 3.0 0.00 0.00 0.00 71 1013.7
20190424085206 64 297 1.0 4.0 0.00 0.00 0.00 70 1013.7
20190424085106 64 298 1.0 4.0 0.00 0.00 0.00 71 1013.7
20190424085006 64 301 1.0 4.0 0.00 0.00 0.00 70 1013.7
20190424084906 64 302 1.0 4.0 0.00 0.00 0.00 70 1013.7
20190424084806 64 301 1.0 4.0 0.00 0.00 0.00 70 1013.7
20190424084706 64 299 1.0 4.0 0.00 0.00 0.00 70 1013.7
20190424084606 64 300 1.0 4.0 0.00 0.00 0.00 70 1013.7
20190424084506 64 305 1.0 4.0 0.00 0.00 0.00 71 1013.7
20190424084406 64 309 0.0 4.0 0.00 0.00 0.00 71 1013.7
20190424084306 64 310 0.0 4.0 0.00 0.00 0.00 71 1013.8
20190424084206 64 312 0.0 3.0 0.00 0.00 0.00 71 1013.8
20190424084106 64 316 0.0 3.0 0.00 0.00 0.00 71 1013.9
20190424084006 64 309 0.0 3.0 0.00 0.00 0.00 71 1013.9
20190424083906 64 306 0.0 3.0 0.00 0.00 0.00 70 1013.8
20190424083806 64 304 0.0 3.0 0.00 0.00 0.00 71 1013.9
20190424083706 64 298 0.0 3.0 0.00 0.00 0.00 72 1013.9
20190424083606 64 292 0.0 3.0 0.00 0.00 0.00 70 1013.9
20190424083506 64 300 0.0 3.0 0.00 0.00 0.00 71 1013.9
20190424083406 64 301 0.0 3.0 0.00 0.00 0.00 71 1013.9
20190424083306 64 299 1.0 3.0 0.00 0.00 0.00 71 1013.9
20190424083206 64 303 1.0 3.0 0.00 0.00 0.00 70 1013.9
20190424083106 64 302 1.0 1.0 0.00 0.00 0.00 71 1013.9
20190424083007 64 314 1.0 2.0 0.00 0.00 0.00 71 1013.9
20190424082906 64 311 1.0 2.0 0.00 0.00 0.00 71 1014.0
20190424082806 64 314 1.0 2.0 0.00 0.00 0.00 70 1013.9
20190424082706 64 319 1.0 2.0 0.00 0.00 0.00 70 1013.9
20190424082605 64 322 1.0 2.0 0.00 0.00 0.00 70 1013.9
20190424082507 64 321 1.0 2.0 0.00 0.00 0.00 70 1013.9
20190424082406 64 323 0.0 2.0 0.00 0.00 0.00 71 1013.9
20190424082306 64 321 0.0 2.0 0.00 0.00 0.00 71 1013.9
20190424082205 64 317 0.0 2.0 0.00 0.00 0.00 72 1013.9
20190424082105 64 315 0.0 2.0 0.00 0.00 0.00 70 1013.9
20190424082006 64 303 0.0 2.0 0.00 0.00 0.00 70 1013.9
20190424081906 64 308 0.0 2.0 0.00 0.00 0.00 71 1013.9
20190424081806 64 307 0.0 2.0 0.00 0.00 0.00 71 1013.9
20190424081706 64 303 0.0 2.0 0.00 0.00 0.00 71 1014.0
20190424081606 64 313 0.0 2.0 0.00 0.00 0.00 72 1014.0
20190424081506 64 317 0.0 2.0 0.00 0.00 0.00 72 1014.0
20190424081406 64 319 0.0 2.0 0.00 0.00 0.00 71 1014.0
20190424081306 64 321 0.0 2.0 0.00 0.00 0.00 72 1014.0
20190424081206 64 325 0.0 2.0 0.00 0.00 0.00 72 1013.9
20190424081105 64 325 0.0 2.0 0.00 0.00 0.00 72 1013.9
20190424081006 64 325 0.0 2.0 0.00 0.00 0.00 72 1013.9
20190424080906 64 325 0.0 2.0 0.00 0.00 0.00 73 1013.9
20190424080805 64 326 0.0 2.0 0.00 0.00 0.00 72 1013.9
20190424080705 64 341 0.0 2.0 0.00 0.00 0.00 71 1013.9
20190424080606 63 13 0.0 1.0 0.00 0.00 0.00 73 1013.9
20190424080506 63 15 0.0 1.0 0.00 0.00 0.00 72 1013.9
20190424080406 64 299 0.0 1.0 0.00 0.00 0.00 72 1013.9
20190424080305 64 300 0.0 2.0 0.00 0.00 0.00 73 1013.9
20190424080206 64 298 0.0 2.0 0.00 0.00 0.00 72 1013.9
20190424080106 64 296 0.0 2.0 0.00 0.00 0.00 72 1014.0
20190424080007 64 297 0.0 2.0 0.00 0.00 0.00 72 1014.0
20190424075906 64 299 0.0 2.0 0.00 0.00 0.00 73 1014.0
20190424075806 64 299 1.0 2.0 0.00 0.00 0.00 72 1014.0
20190424075706 64 296 1.0 2.0 0.00 0.00 0.00 72 1014.0
20190424075606 64 296 1.0 2.0 0.00 0.00 0.00 72 1014.1
20190424075507 64 296 1.0 2.0 0.00 0.00 0.00 72 1014.0
20190424075406 64 296 0.0 2.0 0.00 0.00 0.00 72 1014.1
20190424075306 64 294 0.0 2.0 0.00 0.00 0.00 72 1014.0
20190424075206 64 295 0.0 2.0 0.00 0.00 0.00 72 1014.0
20190424075106 64 285 0.0 2.0 0.00 0.00 0.00 71 1014.0
20190424075006 64 280 0.0 3.0 0.00 0.00 0.00 71 1014.0
20190424074906 64 285 0.0 3.0 0.00 0.00 0.00 71 1013.9
20190424074806 64 285 0.0 3.0 0.00 0.00 0.00 72 1014.0
20190424074706 64 297 0.0 3.0 0.00 0.00 0.00 71 1013.9
20190424074605 64 311 0.0 3.0 0.00 0.00 0.00 72 1013.9
20190424074506 64 312 1.0 3.0 0.00 0.00 0.00 72 1014.0
20190424074406 64 317 1.0 3.0 0.00 0.00 0.00 71 1013.9
20190424074306 64 306 1.0 3.0 0.00 0.00 0.00 71 1013.9
20190424074206 64 306 1.0 3.0 0.00 0.00 0.00 71 1013.9
20190424074105 64 317 1.0 3.0 0.00 0.00 0.00 71 1014.0
20190424074006 64 319 1.0 3.0 0.00 0.00 0.00 71 1014.0
20190424073906 64 317 1.0 3.0 0.00 0.00 0.00 71 1014.0
20190424073806 64 317 1.0 3.0 0.00 0.00 0.00 71 1014.0
20190424073705 64 314 1.0 3.0 0.00 0.00 0.00 71 1014.0
20190424073605 64 306 1.0 3.0 0.00 0.00 0.00 71 1014.0
20190424073506 64 305 0.0 3.0 0.00 0.00 0.00 71 1014.1
20190424073406 64 296 0.0 3.0 0.00 0.00 0.00 72 1014.0
20190424073305 64 316 0.0 2.0 0.00 0.00 0.00 71 1014.0
20190424073205 64 314 0.0 2.0 0.00 0.00 0.00 71 1014.1
20190424073106 64 295 0.0 2.0 0.00 0.00 0.00 72 1014.1
20190424073006 64 303 0.0 2.0 0.00 0.00 0.00 72 1014.0
20190424072905 64 293 0.0 2.0 0.00 0.00 0.00 72 1014.1
20190424072805 64 293 0.0 2.0 0.00 0.00 0.00 72 1014.0
20190424072706 64 297 0.0 2.0 0.00 0.00 0.00 72 1014.1
20190424072606 64 300 0.0 2.0 0.00 0.00 0.00 72 1014.1
20190424072506 64 300 0.0 2.0 0.00 0.00 0.00 72 1014.0
20190424072405 64 300 0.0 2.0 0.00 0.00 0.00 72 1014.1
20190424072306 64 300 0.0 2.0 0.00 0.00 0.00 72 1014.1
20190424072206 64 298 1.0 2.0 0.00 0.00 0.00 71 1014.1
20190424072106 64 296 1.0 2.0 0.00 0.00 0.00 72 1014.1
20190424072006 64 295 1.0 2.0 0.00 0.00 0.00 71 1014.1
20190424071905 64 294 1.0 2.0 0.00 0.00 0.00 71 1014.1
20190424071806 64 294 0.0 2.0 0.00 0.00 0.00 71 1014.1
20190424071706 64 291 0.0 2.0 0.00 0.00 0.00 71 1014.1
20190424071606 64 287 0.0 2.0 0.00 0.00 0.00 72 1014.1
20190424071506 64 287 0.0 2.0 0.00 0.00 0.00 71 1014.1
20190424071405 64 287 0.0 2.0 0.00 0.00 0.00 71 1014.1
20190424071305 64 291 0.0 2.0 0.00 0.00 0.00 71 1014.1
20190424071206 64 294 0.0 2.0 0.00 0.00 0.00 71 1014.1
20190424071106 64 297 0.0 2.0 0.00 0.00 0.00 70 1014.0
20190424071006 64 296 0.0 2.0 0.00 0.00 0.00 70 1014.1
20190424070905 64 294 0.0 2.0 0.00 0.00 0.00 71 1014.1
20190424070805 64 296 0.0 2.0 0.00 0.00 0.00 71 1014.1
20190424070706 64 299 1.0 2.0 0.00 0.00 0.00 71 1014.1
20190424070606 64 303 1.0 2.0 0.00 0.00 0.00 71 1014.1
20190424070506 64 304 1.0 2.0 0.00 0.00 0.00 71 1014.1
20190424070405 64 304 0.0 2.0 0.00 0.00 0.00 70 1014.2
20190424070305 64 304 1.0 2.0 0.00 0.00 0.00 70 1014.2
20190424070206 64 297 1.0 2.0 0.00 0.00 0.00 71 1014.2
20190424070106 64 295 0.0 2.0 0.00 0.00 0.00 71 1014.2
20190424070006 64 298 0.0 2.0 0.00 0.00 0.00 71 1014.1
20190424065906 64 300 0.0 2.0 0.00 0.00 0.00 71 1014.2
20190424065806 64 298 0.0 2.0 0.00 0.00 0.00 71 1014.2
20190424065706 64 291 0.0 2.0 0.00 0.00 0.00 72 1014.2
20190424065606 64 277 0.0 1.0 0.00 0.00 0.00 72 1014.2
20190424065506 64 277 0.0 1.0 0.00 0.00 0.00 72 1014.2
20190424065406 64 281 0.0 1.0 0.00 0.00 0.00 71 1014.2
20190424065306 64 281 0.0 1.0 0.00 0.00 0.00 73 1014.2
20190424065206 64 288 0.0 1.0 0.00 0.00 0.00 71 1014.1
20190424065106 64 291 0.0 1.0 0.00 0.00 0.00 71 1014.2
20190424065007 64 291 0.0 1.0 0.00 0.00 0.00 73 1014.1
20190424064906 64 289 0.0 2.0 0.00 0.00 0.00 74 1014.2
20190424064806 64 285 0.0 2.0 0.00 0.00 0.00 72 1014.2
20190424064706 64 285 0.0 2.0 0.00 0.00 0.00 71 1014.2
20190424064606 64 284 0.0 2.0 0.00 0.00 0.00 71 1014.2
20190424064506 64 284 0.0 2.0 0.00 0.00 0.00 72 1014.2
20190424064406 63 280 0.0 2.0 0.00 0.00 0.00 73 1014.2
20190424064306 63 280 0.0 2.0 0.00 0.00 0.00 74 1014.2
20190424064206 63 276 0.0 2.0 0.00 0.00 0.00 74 1014.2
20190424064105 63 276 0.0 2.0 0.00 0.00 0.00 74 1014.2
20190424064006 63 275 0.0 2.0 0.00 0.00 0.00 74 1014.2
20190424063906 63 256 0.0 1.0 0.00 0.00 0.00 73 1014.3
20190424063806 63 261 0.0 1.0 0.00 0.00 0.00 76 1014.3
20190424063706 63 259 0.0 1.0 0.00 0.00 0.00 74 1014.3
20190424063605 63 258 0.0 1.0 0.00 0.00 0.00 75 1014.3
20190424063506 63 258 0.0 1.0 0.00 0.00 0.00 74 1014.3
20190424063406 63 258 0.0 1.0 0.00 0.00 0.00 75 1014.3
20190424063306 63 258 0.0 1.0 0.00 0.00 0.00 75 1014.3
20190424063205 63 258 0.0 1.0 0.00 0.00 0.00 75 1014.4
20190424063105 63 258 0.0 1.0 0.00 0.00 0.00 74 1014.4
20190424063006 63 258 0.0 1.0 0.00 0.00 0.00 75 1014.4
20190424062906 63 257 0.0 1.0 0.00 0.00 0.00 74 1014.4
20190424062805 63 253 0.0 1.0 0.00 0.00 0.00 74 1014.4
20190424062705 63 252 0.0 1.0 0.00 0.00 0.00 72 1014.4
20190424062606 63 252 0.0 1.0 0.00 0.00 0.00 74 1014.4
20190424062506 63 252 0.0 1.0 0.00 0.00 0.00 74 1014.4
20190424062406 63 252 0.0 1.0 0.00 0.00 0.00 74 1014.4
20190424062305 63 252 0.0 1.0 0.00 0.00 0.00 74 1014.4
20190424062205 63 252 0.0 1.0 0.00 0.00 0.00 74 1014.4
20190424062106 63 252 0.0 1.0 0.00 0.00 0.00 74 1014.4
20190424062006 63 252 0.0 1.0 0.00 0.00 0.00 73 1014.4
20190424061905 63 252 0.0 1.0 0.00 0.00 0.00 73 1014.4
20190424061806 63 252 0.0 1.0 0.00 0.00 0.00 73 1014.4
20190424061706 64 252 0.0 1.0 0.00 0.00 0.00 73 1014.4
20190424061606 64 252 0.0 1.0 0.00 0.00 0.00 72 1014.5
20190424061506 64 252 0.0 1.0 0.00 0.00 0.00 72 1014.4
20190424061405 64 251 0.0 1.0 0.00 0.00 0.00 71 1014.4
20190424061306 64 251 0.0 1.0 0.00 0.00 0.00 72 1014.5
20190424061206 64 251 0.0 1.0 0.00 0.00 0.00 72 1014.5
20190424061106 64 251 0.0 1.0 0.00 0.00 0.00 71 1014.5
20190424061007 64 246 0.0 1.0 0.00 0.00 0.00 70 1014.5
20190424060906 64 243 0.0 1.0 0.00 0.00 0.00 70 1014.5
20190424060806 64 243 0.0 1.0 0.00 0.00 0.00 69 1014.5
20190424060706 64 243 0.0 1.0 0.00 0.00 0.00 69 1014.5
20190424060606 65 243 0.0 1.0 0.00 0.00 0.00 70 1014.5
20190424060506 65 241 0.0 1.0 0.00 0.00 0.00 70 1014.5
20190424060406 65 282 0.0 1.0 0.00 0.00 0.00 70 1014.5
20190424060306 65 298 0.0 1.0 0.00 0.00 0.00 69 1014.5
20190424060206 65 298 0.0 1.0 0.00 0.00 0.00 69 1014.6
20190424060105 65 297 0.0 1.0 0.00 0.00 0.00 68 1014.6
20190424060006 65 273 0.0 2.0 0.00 0.00 0.00 69 1014.6
20190424055906 65 277 0.0 2.0 0.00 0.00 0.00 68 1014.6
20190424055806 65 278 0.0 2.0 0.00 0.00 0.00 68 1014.6
20190424055706 65 278 0.0 2.0 0.00 0.00 0.00 69 1014.6
20190424055606 65 278 0.0 2.0 0.00 0.00 0.00 68 1014.6
20190424055506 65 278 0.0 2.0 0.00 0.00 0.00 67 1014.6
20190424055406 65 259 0.0 2.0 0.00 0.00 0.00 67 1014.6
20190424055305 66 259 0.0 2.0 0.00 0.00 0.00 68 1014.6
20190424055206 66 259 0.0 2.0 0.00 0.00 0.00 67 1014.6
20190424055105 66 259 0.0 2.0 0.00 0.00 0.00 67 1014.6
20190424055006 66 330 0.0 1.0 0.00 0.00 0.00 67 1014.6
20190424054906 66 330 0.0 1.0 0.00 0.00 0.00 67 1014.6
20190424054806 66 330 0.0 1.0 0.00 0.00 0.00 67 1014.6
20190424054705 66 325 0.0 1.0 0.00 0.00 0.00 66 1014.6
20190424054606 66 324 0.0 1.0 0.00 0.00 0.00 65 1014.6
20190424054506 66 324 0.0 1.0 0.00 0.00 0.00 66 1014.6
20190424054405 66 307 0.0 1.0 0.00 0.00 0.00 65 1014.6
20190424054305 66 293 0.0 3.0 0.00 0.00 0.00 65 1014.6
20190424054206 66 298 0.0 3.0 0.00 0.00 0.00 65 1014.7
20190424054106 66 298 1.0 3.0 0.00 0.00 0.00 65 1014.6
20190424054006 66 298 1.0 3.0 0.00 0.00 0.00 65 1014.7
20190424053905 67 287 1.0 3.0 0.00 0.00 0.00 65 1014.7
20190424053805 67 284 1.0 3.0 0.00 0.00 0.00 65 1014.6
20190424053706 67 280 1.0 3.0 0.00 0.00 0.00 64 1014.6
20190424053606 67 276 1.0 3.0 0.00 0.00 0.00 64 1014.7
20190424053506 66 276 1.0 3.0 0.00 0.00 0.00 64 1014.7
20190424053406 66 278 0.0 3.0 0.00 0.00 0.00 65 1014.7
20190424053306 66 279 1.0 3.0 0.00 0.00 0.00 65 1014.7
20190424053206 66 286 1.0 3.0 0.00 0.00 0.00 65 1014.7
20190424053106 66 294 1.0 3.0 0.00 0.00 0.00 65 1014.7
20190424053008 66 298 0.0 3.0 0.00 0.00 0.00 64 1014.7
20190424052906 66 324 0.0 2.0 0.00 0.00 0.00 65 1014.8
20190424052806 66 340 0.0 2.0 0.00 0.00 0.00 65 1014.7
20190424052706 66 340 1.0 2.0 0.00 0.00 0.00 65 1014.8
20190424052606 67 351 1.0 3.0 0.00 0.00 0.00 65 1014.8
20190424052506 67 351 1.0 3.0 0.00 0.00 0.00 65 1014.8
20190424052406 67 345 1.0 3.0 0.00 0.00 0.00 65 1014.8
20190424052306 67 342 1.0 3.0 0.00 0.00 0.00 65 1014.8
20190424052206 66 342 1.0 3.0 0.00 0.00 0.00 65 1014.8
20190424052106 67 336 1.0 3.0 0.00 0.00 0.00 65 1014.8
20190424052006 66 332 1.0 3.0 0.00 0.00 0.00 65 1014.7
20190424051906 67 333 1.0 3.0 0.00 0.00 0.00 65 1014.7
20190424051806 67 327 1.0 3.0 0.00 0.00 0.00 65 1014.7
20190424051706 67 326 0.0 3.0 0.00 0.00 0.00 65 1014.7
20190424051606 67 297 1.0 2.0 0.00 0.00 0.00 65 1014.7
20190424051506 67 288 0.0 2.0 0.00 0.00 0.00 65 1014.8
20190424051406 67 290 1.0 2.0 0.00 0.00 0.00 64 1014.8
20190424051305 67 286 1.0 3.0 0.00 0.00 0.00 65 1014.8
20190424051206 67 293 1.0 3.0 0.00 0.00 0.00 64 1014.8
20190424051106 67 291 1.0 3.0 0.00 0.00 0.00 64 1014.8
20190424051006 67 289 1.0 3.0 0.00 0.00 0.00 64 1014.9
20190424050905 67 291 1.0 3.0 0.00 0.00 0.00 64 1014.9
20190424050806 67 304 1.0 3.0 0.00 0.00 0.00 64 1014.9
20190424050706 68 310 1.0 3.0 0.00 0.00 0.00 63 1014.9
20190424050606 68 312 1.0 3.0 0.00 0.00 0.00 63 1014.9
20190424050506 68 317 1.0 3.0 0.00 0.00 0.00 63 1014.9
20190424050406 68 316 1.0 3.0 0.00 0.00 0.00 64 1014.9
20190424050306 68 324 1.0 3.0 0.00 0.00 0.00 63 1014.9
20190424050205 68 326 1.0 3.0 0.00 0.00 0.00 64 1014.9
20190424050105 68 321 1.0 3.0 0.00 0.00 0.00 62 1014.9
20190424050006 68 322 1.0 3.0 0.00 0.00 0.00 61 1014.9
20190424045906 68 321 1.0 3.0 0.00 0.00 0.00 63 1014.9
20190424045806 68 309 1.0 3.0 0.00 0.00 0.00 61 1014.9
20190424045705 68 301 1.0 3.0 0.00 0.00 0.00 62 1014.9
20190424045605 68 299 1.0 3.0 0.00 0.00 0.00 61 1014.9
20190424045506 68 297 1.0 3.0 0.00 0.00 0.00 61 1014.9
20190424045406 69 303 1.0 5.0 0.00 0.00 0.00 60 1014.9
20190424045305 69 305 1.0 5.0 0.00 0.00 0.00 61 1014.9
20190424045206 69 303 1.0 5.0 0.00 0.00 0.00 61 1014.9
20190424045105 69 305 1.0 5.0 0.00 0.00 0.00 61 1014.9
20190424045006 69 306 0.0 5.0 0.00 0.00 0.00 60 1014.9
20190424044906 69 308 0.0 5.0 0.00 0.00 0.00 60 1014.9
20190424044806 69 303 0.0 5.0 0.00 0.00 0.00 61 1015.0
20190424044705 69 303 0.0 5.0 0.00 0.00 0.00 60 1015.0
20190424044607 69 303 1.0 5.0 0.00 0.00 0.00 60 1015.0
20190424044506 69 290 0.0 5.0 0.00 0.00 0.00 60 1015.0
20190424044405 69 271 1.0 3.0 0.00 0.00 0.00 60 1015.0
20190424044305 69 271 1.0 3.0 0.00 0.00 0.00 60 1015.0
20190424044206 69 270 1.0 3.0 0.00 0.00 0.00 60 1015.0
20190424044106 69 266 1.0 3.0 0.00 0.00 0.00 60 1015.0
20190424044006 69 264 1.0 3.0 0.00 0.00 0.00 59 1015.0
20190424043905 69 265 1.0 3.0 0.00 0.00 0.00 59 1015.1
20190424043805 69 265 1.0 3.0 0.00 0.00 0.00 60 1015.0
20190424043706 69 259 1.0 3.0 0.00 0.00 0.00 59 1015.1
20190424043606 69 256 1.0 3.0 0.00 0.00 0.00 59 1015.1
20190424043506 69 258 1.0 3.0 0.00 0.00 0.00 59 1015.1
20190424043406 69 250 1.0 4.0 0.00 0.00 0.00 59 1015.1
20190424043306 69 246 1.0 4.0 0.00 0.00 0.00 59 1015.1
20190424043206 69 244 1.0 4.0 0.00 0.00 0.00 59 1015.1
20190424043106 69 247 1.0 4.0 0.00 0.00 0.00 59 1015.1
20190424043007 70 250 1.0 4.0 0.00 0.00 0.00 59 1015.1
20190424042906 70 246 1.0 6.0 0.00 0.00 0.00 59 1015.1
20190424042806 70 248 1.0 6.0 0.00 0.00 0.00 59 1015.1
20190424042706 70 263 1.0 6.0 0.00 0.00 0.00 58 1015.1
20190424042606 70 265 1.0 6.0 0.00 0.00 0.00 58 1015.1
20190424042506 70 261 1.0 6.0 0.00 0.00 0.00 58 1015.1
20190424042406 70 267 1.0 6.0 0.00 0.00 0.00 58 1015.1
20190424042306 70 259 2.0 6.0 0.00 0.00 0.00 58 1015.1
20190424042206 70 258 2.0 6.0 0.00 0.00 0.00 58 1015.2
20190424042105 70 257 2.0 6.0 0.00 0.00 0.00 58 1015.2
20190424042006 70 257 1.0 6.0 0.00 0.00 0.00 58 1015.1
20190424041906 70 258 1.0 6.0 0.00 0.00 0.00 58 1015.2
20190424041805 70 257 1.0 6.0 0.00 0.00 0.00 58 1015.1
20190424041705 70 247 1.0 6.0 0.00 0.00 0.00 58 1015.1
20190424041605 70 245 1.0 6.0 0.00 0.00 0.00 58 1015.1
20190424041506 70 249 1.0 6.0 0.00 0.00 0.00 58 1015.1
20190424041406 70 251 1.0 6.0 0.00 0.00 0.00 58 1015.1
20190424041305 70 270 1.0 3.0 0.00 0.00 0.00 58 1015.1
20190424041206 70 274 1.0 3.0 0.00 0.00 0.00 58 1015.1
20190424041105 70 278 1.0 3.0 0.00 0.00 0.00 58 1015.1
20190424041006 70 284 1.0 3.0 0.00 0.00 0.00 58 1015.1
20190424040905 70 298 1.0 3.0 0.00 0.00 0.00 59 1015.1
20190424040806 70 293 1.0 3.0 0.00 0.00 0.00 58 1015.1
20190424040705 70 289 1.0 3.0 0.00 0.00 0.00 58 1015.2
20190424040606 70 288 1.0 3.0 0.00 0.00 0.00 58 1015.1
20190424040506 70 284 1.0 3.0 0.00 0.00 0.00 57 1015.1
20190424040405 70 292 1.0 3.0 0.00 0.00 0.00 57 1015.2
20190424040305 70 289 1.0 3.0 0.00 0.00 0.00 57 1015.2
20190424040205 70 288 1.0 3.0 0.00 0.00 0.00 57 1015.2
20190424040106 70 300 1.0 3.0 0.00 0.00 0.00 57 1015.2
20190424040007 70 305 1.0 3.0 0.00 0.00 0.00 57 1015.2
20190424035906 70 301 0.0 3.0 0.00 0.00 0.00 58 1015.2
20190424035805 70 310 1.0 3.0 0.00 0.00 0.00 58 1015.3
20190424035705 70 298 1.0 3.0 0.00 0.00 0.00 57 1015.2
20190424035605 70 289 1.0 4.0 0.00 0.00 0.00 57 1015.2
20190424035506 70 296 1.0 5.0 0.00 0.00 0.00 57 1015.2
20190424035406 70 287 1.0 5.0 0.00 0.00 0.00 58 1015.2
20190424035305 70 268 1.0 5.0 0.00 0.00 0.00 58 1015.2
20190424035206 70 270 1.0 5.0 0.00 0.00 0.00 57 1015.2
20190424035106 70 272 1.0 5.0 0.00 0.00 0.00 57 1015.3
20190424035006 70 268 1.0 5.0 0.00 0.00 0.00 57 1015.2
20190424034905 71 263 1.0 5.0 0.00 0.00 0.00 56 1015.2
20190424034806 71 262 1.0 5.0 0.00 0.00 0.00 57 1015.2
20190424034706 71 263 1.0 5.0 0.00 0.00 0.00 57 1015.2
20190424034606 71 259 1.0 5.0 0.00 0.00 0.00 57 1015.2
20190424034506 71 253 1.0 4.0 0.00 0.00 0.00 57 1015.1
20190424034406 71 255 1.0 4.0 0.00 0.00 0.00 57 1015.2
20190424034305 71 256 1.0 3.0 0.00 0.00 0.00 57 1015.2
20190424034205 71 244 1.0 3.0 0.00 0.00 0.00 57 1015.2
20190424034105 71 236 1.0 3.0 0.00 0.00 0.00 56 1015.2
20190424034006 71 250 1.0 3.0 0.00 0.00 0.00 56 1015.3
20190424033906 71 258 1.0 3.0 0.00 0.00 0.00 56 1015.3
20190424033805 71 256 1.0 3.0 0.00 0.00 0.00 56 1015.3
20190424033705 71 262 1.0 3.0 0.00 0.00 0.00 56 1015.2
20190424033606 71 273 1.0 3.0 0.00 0.00 0.00 56 1015.2
20190424033506 71 274 1.0 3.0 0.00 0.00 0.00 56 1015.2
20190424033406 71 270 1.0 4.0 0.00 0.00 0.00 56 1015.2
20190424033305 71 275 1.0 5.0 0.00 0.00 0.00 56 1015.2
20190424033205 71 290 1.0 5.0 0.00 0.00 0.00 56 1015.2
20190424033106 71 282 1.0 5.0 0.00 0.00 0.00 56 1015.2
20190424033006 71 270 1.0 5.0 0.00 0.00 0.00 56 1015.2
20190424032905 71 271 1.0 5.0 0.00 0.00 0.00 56 1015.2
20190424032805 71 275 1.0 5.0 0.00 0.00 0.00 56 1015.2
20190424032706 71 275 1.0 5.0 0.00 0.00 0.00 56 1015.2
20190424032606 71 268 1.0 5.0 0.00 0.00 0.00 55 1015.2
20190424032506 71 266 1.0 5.0 0.00 0.00 0.00 56 1015.1
20190424032405 71 269 1.0 5.0 0.00 0.00 0.00 56 1015.2
20190424032306 72 261 1.0 4.0 0.00 0.00 0.00 56 1015.2
20190424032206 72 261 1.0 4.0 0.00 0.00 0.00 55 1015.2
20190424032106 72 279 1.0 4.0 0.00 0.00 0.00 55 1015.2
20190424032006 72 287 1.0 4.0 0.00 0.00 0.00 55 1015.2
20190424031906 72 285 1.0 4.0 0.00 0.00 0.00 55 1015.2
20190424031806 72 286 1.0 4.0 0.00 0.00 0.00 55 1015.2
20190424031706 72 285 1.0 4.0 0.00 0.00 0.00 55 1015.2
20190424031606 72 283 2.0 4.0 0.00 0.00 0.00 55 1015.2
20190424031506 72 282 2.0 4.0 0.00 0.00 0.00 55 1015.3
20190424031406 72 286 1.0 4.0 0.00 0.00 0.00 55 1015.2
20190424031306 72 290 2.0 4.0 0.00 0.00 0.00 55 1015.2
20190424031206 72 287 1.0 4.0 0.00 0.00 0.00 54 1015.2
20190424031105 72 282 2.0 4.0 0.00 0.00 0.00 55 1015.3
20190424031006 72 275 2.0 6.0 0.00 0.00 0.00 55 1015.3
20190424030906 72 277 2.0 6.0 0.00 0.00 0.00 54 1015.3
20190424030806 72 271 2.0 6.0 0.00 0.00 0.00 55 1015.3
20190424030706 72 265 2.0 6.0 0.00 0.00 0.00 55 1015.3
20190424030606 72 270 1.0 6.0 0.00 0.00 0.00 55 1015.3
20190424030506 72 269 1.0 6.0 0.00 0.00 0.00 55 1015.3
20190424030406 72 261 2.0 7.0 0.00 0.00 0.00 55 1015.3
20190424030306 72 256 1.0 7.0 0.00 0.00 0.00 55 1015.3
20190424030206 72 254 2.0 7.0 0.00 0.00 0.00 55 1015.3
20190424030105 72 262 1.0 7.0 0.00 0.00 0.00 54 1015.4
20190424030006 72 262 1.0 7.0 0.00 0.00 0.00 55 1015.3
20190424025906 72 258 1.0 7.0 0.00 0.00 0.00 55 1015.3
20190424025806 72 262 1.0 7.0 0.00 0.00 0.00 55 1015.3
20190424025705 72 263 1.0 7.0 0.00 0.00 0.00 55 1015.2
20190424025606 72 254 2.0 7.0 0.00 0.00 0.00 55 1015.3
20190424025506 72 262 1.0 7.0 0.00 0.00 0.00 55 1015.3
20190424025406 72 270 2.0 6.0 0.00 0.00 0.00 55 1015.3
20190424025306 72 283 2.0 6.0 0.00 0.00 0.00 55 1015.2
20190424025206 72 286 2.0 6.0 0.00 0.00 0.00 55 1015.2
20190424025105 72 285 1.0 6.0 0.00 0.00 0.00 54 1015.3
20190424025007 72 295 1.0 6.0 0.00 0.00 0.00 55 1015.3
20190424024906 72 293 2.0 6.0 0.00 0.00 0.00 55 1015.3
20190424024806 72 295 2.0 6.0 0.00 0.00 0.00 55 1015.3
20190424024705 72 297 2.0 6.0 0.00 0.00 0.00 55 1015.3
20190424024605 72 300 2.0 6.0 0.00 0.00 0.00 55 1015.3
20190424024506 72 292 2.0 6.0 0.00 0.00 0.00 55 1015.3
20190424024406 72 293 2.0 6.0 0.00 0.00 0.00 55 1015.3
20190424024306 72 294 2.0 8.0 0.00 0.00 0.00 55 1015.2
20190424024205 72 293 2.0 8.0 0.00 0.00 0.00 55 1015.2
20190424024105 73 295 1.0 8.0 0.00 0.00 0.00 55 1015.3
20190424024006 73 293 1.0 8.0 0.00 0.00 0.00 55 1015.2
20190424023906 73 294 2.0 8.0 0.00 0.00 0.00 55 1015.3
20190424023806 73 296 2.0 8.0 0.00 0.00 0.00 55 1015.3
20190424023705 73 288 2.0 8.0 0.00 0.00 0.00 55 1015.2
20190424023605 73 286 2.0 8.0 0.00 0.00 0.00 55 1015.3
20190424023506 73 286 2.0 8.0 0.00 0.00 0.00 55 1015.2
20190424023406 73 283 1.0 8.0 0.00 0.00 0.00 55 1015.2
20190424023305 73 278 1.0 8.0 0.00 0.00 0.00 55 1015.2
20190424023205 73 273 1.0 8.0 0.00 0.00 0.00 55 1015.2
20190424023106 73 268 2.0 8.0 0.00 0.00 0.00 55 1015.2
20190424023006 73 257 2.0 8.0 0.00 0.00 0.00 55 1015.2
20190424022905 73 255 1.0 8.0 0.00 0.00 0.00 55 1015.2
20190424022805 73 246 1.0 8.0 0.00 0.00 0.00 55 1015.2
20190424022705 73 250 1.0 6.0 0.00 0.00 0.00 55 1015.2
20190424022606 73 254 2.0 6.0 0.00 0.00 0.00 55 1015.1
20190424022506 73 266 1.0 6.0 0.00 0.00 0.00 55 1015.1
20190424022405 73 266 1.0 5.0 0.00 0.00 0.00 55 1015.1
20190424022305 73 270 2.0 5.0 0.00 0.00 0.00 54 1015.1
20190424022206 73 274 2.0 5.0 0.00 0.00 0.00 54 1015.1
20190424022106 73 266 2.0 6.0 0.00 0.00 0.00 54 1015.1
20190424022006 73 271 2.0 6.0 0.00 0.00 0.00 54 1015.2
20190424021905 73 276 2.0 6.0 0.00 0.00 0.00 54 1015.1
20190424021806 73 276 2.0 6.0 0.00 0.00 0.00 54 1015.2
20190424021706 73 276 2.0 6.0 0.00 0.00 0.00 54 1015.2
20190424021606 73 278 2.0 6.0 0.00 0.00 0.00 54 1015.2
20190424021506 73 279 2.0 6.0 0.00 0.00 0.00 54 1015.2
20190424021406 73 276 2.0 6.0 0.00 0.00 0.00 54 1015.2
20190424021306 73 278 2.0 6.0 0.00 0.00 0.00 54 1015.2
20190424021206 73 279 2.0 6.0 0.00 0.00 0.00 53 1015.2
20190424021106 73 289 2.0 6.0 0.00 0.00 0.00 54 1015.2
20190424021007 73 289 2.0 6.0 0.00 0.00 0.00 54 1015.2
20190424020906 73 290 2.0 6.0 0.00 0.00 0.00 54 1015.2
20190424020806 73 288 2.0 6.0 0.00 0.00 0.00 55 1015.2
20190424020706 73 279 2.0 5.0 0.00 0.00 0.00 55 1015.2
20190424020605 73 274 2.0 5.0 0.00 0.00 0.00 54 1015.1
20190424020506 73 269 2.0 5.0 0.00 0.00 0.00 54 1015.1
20190424020406 73 268 2.0 5.0 0.00 0.00 0.00 54 1015.1
20190424020306 73 254 2.0 5.0 0.00 0.00 0.00 55 1015.1
20190424020206 73 252 2.0 5.0 0.00 0.00 0.00 54 1015.1
20190424020105 73 247 2.0 5.0 0.00 0.00 0.00 55 1015.1
20190424020006 73 247 2.0 5.0 0.00 0.00 0.00 55 1015.1
20190424015905 73 254 2.0 5.0 0.00 0.00 0.00 54 1015.1
20190424015805 73 258 2.0 5.0 0.00 0.00 0.00 54 1015.1
20190424015705 73 258 2.0 5.0 0.00 0.00 0.00 55 1015.1
20190424015605 73 264 2.0 5.0 0.00 0.00 0.00 56 1015.1
20190424015506 73 265 2.0 5.0 0.00 0.00 0.00 55 1015.1
20190424015405 73 268 2.0 5.0 0.00 0.00 0.00 55 1015.1
20190424015305 73 275 2.0 5.0 0.00 0.00 0.00 55 1015.1
20190424015205 73 281 1.0 5.0 0.00 0.00 0.00 55 1015.2
20190424015106 73 290 1.0 5.0 0.00 0.00 0.00 56 1015.2
20190424015006 73 293 1.0 5.0 0.00 0.00 0.00 56 1015.2
20190424014905 72 294 1.0 3.0 0.00 0.00 0.00 56 1015.2
20190424014806 72 285 1.0 4.0 0.00 0.00 0.00 56 1015.2
20190424014706 72 286 1.0 4.0 0.00 0.00 0.00 56 1015.1
20190424014606 72 281 1.0 4.0 0.00 0.00 0.00 57 1015.2
20190424014505 72 280 1.0 4.0 0.00 0.00 0.00 57 1015.1
20190424014406 72 280 1.0 4.0 0.00 0.00 0.00 58 1015.2
20190424014306 72 270 1.0 4.0 0.00 0.00 0.00 58 1015.1
20190424014206 72 255 1.0 4.0 0.00 0.00 0.00 59 1015.2
20190424014105 71 253 1.0 4.0 0.00 0.00 0.00 59 1015.1
20190424014006 71 248 1.0 4.0 0.00 0.00 0.00 59 1015.1
20190424013906 71 245 0.0 4.0 0.00 0.00 0.00 59 1015.1
20190424013806 71 246 0.0 4.0 0.00 0.00 0.00 59 1015.1
20190424013705 71 245 0.0 4.0 0.00 0.00 0.00 59 1015.1
20190424013605 70 248 0.0 4.0 0.00 0.00 0.00 60 1015.1
20190424013506 70 250 0.0 4.0 0.00 0.00 0.00 61 1015.1
20190424013406 70 242 0.0 4.0 0.00 0.00 0.00 60 1015.1
20190424013305 70 226 0.0 3.0 0.00 0.00 0.00 62 1015.1
20190424013205 70 224 0.0 3.0 0.00 0.00 0.00 62 1015.1
20190424013106 70 222 0.0 3.0 0.00 0.00 0.00 64 1015.1
20190424013006 70 227 0.0 3.0 0.00 0.00 0.00 61 1015.1
20190424012906 70 228 0.0 3.0 0.00 0.00 0.00 62 1015.0
20190424012806 69 224 0.0 3.0 0.00 0.00 0.00 62 1015.0
20190424012706 69 214 0.0 3.0 0.00 0.00 0.00 63 1015.0
20190424012606 69 213 0.0 3.0 0.00 0.00 0.00 63 1015.0
20190424012506 69 216 0.0 3.0 0.00 0.00 0.00 63 1015.0
20190424012406 69 229 0.0 3.0 0.00 0.00 0.00 62 1015.0
20190424012305 69 261 0.0 1.0 0.00 0.00 0.00 63 1015.0
20190424012205 69 261 0.0 1.0 0.00 0.00 0.00 63 1015.0
20190424012105 69 261 0.0 1.0 0.00 0.00 0.00 63 1015.0
20190424012006 69 260 0.0 1.0 0.00 0.00 0.00 63 1015.0
20190424011905 69 259 0.0 1.0 0.00 0.00 0.00 62 1014.9
20190424011805 69 259 0.0 1.0 0.00 0.00 0.00 63 1014.9
20190424011706 69 258 0.0 1.0 0.00 0.00 0.00 63 1014.9
20190424011606 69 258 0.0 1.0 0.00 0.00 0.00 63 1014.9
20190424011506 69 256 0.0 1.0 0.00 0.00 0.00 63 1014.9
20190424011405 69 256 0.0 1.0 0.00 0.00 0.00 64 1014.9
20190424011306 69 256 0.0 1.0 0.00 0.00 0.00 64 1014.8
20190424011206 69 256 0.0 1.0 0.00 0.00 0.00 62 1014.9
20190424011106 69 256 0.0 1.0 0.00 0.00 0.00 63 1014.9
20190424011007 69 256 0.0 1.0 0.00 0.00 0.00 63 1014.9
20190424010906 69 256 0.0 1.0 0.00 0.00 0.00 63 1014.9
20190424010806 69 256 0.0 1.0 0.00 0.00 0.00 63 1014.9
20190424010705 69 256 0.0 1.0 0.00 0.00 0.00 63 1014.9
20190424010606 69 256 0.0 1.0 0.00 0.00 0.00 63 1014.9
20190424010506 69 256 0.0 1.0 0.00 0.00 0.00 64 1014.9
20190424010405 69 256 0.0 1.0 0.00 0.00 0.00 63 1014.9
20190424010305 69 256 0.0 1.0 0.00 0.00 0.00 62 1014.9
20190424010205 69 256 0.0 1.0 0.00 0.00 0.00 64 1014.9
20190424010105 69 256 0.0 1.0 0.00 0.00 0.00 64 1014.9
20190424010006 69 256 0.0 1.0 0.00 0.00 0.00 64 1014.8
20190424005905 69 256 0.0 1.0 0.00 0.00 0.00 64 1014.9
20190424005805 69 256 0.0 1.0 0.00 0.00 0.00 63 1014.8
20190424005705 69 256 0.0 1.0 0.00 0.00 0.00 65 1014.8
20190424005606 69 256 0.0 1.0 0.00 0.00 0.00 64 1014.8
20190424005506 69 256 0.0 1.0 0.00 0.00 0.00 65 1014.8
20190424005405 69 256 0.0 1.0 0.00 0.00 0.00 64 1014.8
20190424005305 69 256 0.0 1.0 0.00 0.00 0.00 66 1014.9
20190424005206 69 256 0.0 1.0 0.00 0.00 0.00 64 1014.9
20190424005106 69 256 0.0 1.0 0.00 0.00 0.00 67 1014.9
20190424005006 69 256 0.0 1.0 0.00 0.00 0.00 65 1014.8
20190424004906 69 256 0.0 1.0 0.00 0.00 0.00 67 1014.9
20190424004806 69 256 0.0 1.0 0.00 0.00 0.00 66 1014.9
20190424004706 69 256 0.0 1.0 0.00 0.00 0.00 67 1014.9
20190424004606 69 0 0.0 0.0 0.00 0.00 0.00 66 1014.9
20190424004506 69 0 0.0 0.0 0.00 0.00 0.00 66 1015.0
20190424004406 69 0 0.0 0.0 0.00 0.00 0.00 64 1014.9
20190424004306 70 256 0.0 1.0 0.00 0.00 0.00 63 1014.9
20190424004206 70 256 0.0 1.0 0.00 0.00 0.00 63 1014.9
20190424004105 70 256 0.0 1.0 0.00 0.00 0.00 63 1014.9
20190424004006 70 256 0.0 1.0 0.00 0.00 0.00 64 1014.9
20190424003906 70 256 0.0 1.0 0.00 0.00 0.00 62 1014.9
20190424003805 70 256 0.0 1.0 0.00 0.00 0.00 62 1014.8
20190424003705 70 256 0.0 1.0 0.00 0.00 0.00 64 1014.8
20190424003605 70 256 0.0 1.0 0.00 0.00 0.00 61 1014.8
20190424003506 70 256 0.0 1.0 0.00 0.00 0.00 62 1014.9
20190424003405 71 256 0.0 1.0 0.00 0.00 0.00 61 1014.8
20190424003305 71 256 0.0 1.0 0.00 0.00 0.00 61 1014.8
20190424003205 71 256 0.0 1.0 0.00 0.00 0.00 59 1014.8
20190424003105 71 256 0.0 1.0 0.00 0.00 0.00 62 1014.9
20190424003006 71 256 0.0 1.0 0.00 0.00 0.00 59 1014.8
20190424002905 71 256 0.0 1.0 0.00 0.00 0.00 61 1014.9
20190424002805 72 256 0.0 1.0 0.00 0.00 0.00 59 1014.8
20190424002706 72 256 0.0 1.0 0.00 0.00 0.00 60 1014.9
20190424002606 72 256 0.0 1.0 0.00 0.00 0.00 60 1014.9
20190424002506 72 256 0.0 1.0 0.00 0.00 0.00 60 1014.9
20190424002405 72 256 0.0 1.0 0.00 0.00 0.00 59 1014.8
20190424002306 72 256 0.0 1.0 0.00 0.00 0.00 60 1014.9
20190424002206 72 256 0.0 1.0 0.00 0.00 0.00 57 1014.8
20190424002106 73 256 0.0 1.0 0.00 0.00 0.00 56 1014.8
20190424002007 73 256 0.0 1.0 0.00 0.00 0.00 57 1014.9
20190424001906 73 256 0.0 1.0 0.00 0.00 0.00 56 1014.8
20190424001805 73 256 0.0 1.0 0.00 0.00 0.00 56 1014.8
20190424001705 73 256 0.0 1.0 0.00 0.00 0.00 54 1014.8
20190424001605 74 256 0.0 1.0 0.00 0.00 0.00 56 1014.8
20190424001506 74 256 0.0 1.0 0.00 0.00 0.00 54 1014.8
20190424001406 74 256 0.0 1.0 0.00 0.00 0.00 55 1014.8
20190424001305 74 256 0.0 1.0 0.00 0.00 0.00 55 1014.8
20190424001205 74 256 0.0 1.0 0.00 0.00 0.00 53 1014.8
20190424001105 74 256 0.0 1.0 0.00 0.00 0.00 52 1014.8
20190424001006 75 256 0.0 1.0 0.00 0.00 0.00 51 1014.8
20190424000908 75 256 0.0 1.0 0.00 0.00 0.00 53 1014.8
20190424000806 75 256 0.0 1.0 0.00 0.00 0.00 51 1014.8
20190424000706 76 256 0.0 1.0 0.00 0.00 0.00 50 1014.8
20190424000605 76 256 0.0 1.0 0.00 0.00 0.00 50 1014.8
20190424000505 76 256 0.0 1.0 0.00 0.00 0.00 49 1014.8
20190424000406 76 256 0.0 1.0 0.00 0.00 0.00 49 1014.9
20190424000306 76 256 0.0 1.0 0.00 0.00 0.00 49 1014.9
20190424000206 77 256 0.0 1.0 0.00 0.00 0.00 48 1014.9
20190424000105 77 246 0.0 3.0 0.00 0.00 0.00 47 1014.8
20190424000006 77 240 0.0 3.0 0.00 0.00 0.00 48 1014.9
20190423235905 77 244 0.0 3.0 0.00 0.00 0.00 46 1014.9
20190423235806 77 233 1.0 3.0 0.00 0.00 0.00 46 1014.9
20190423235705 78 234 1.0 3.0 0.00 0.00 0.00 46 1014.8
20190423235605 78 237 1.0 3.0 0.00 0.00 0.00 46 1014.9
20190423235506 78 240 1.0 3.0 0.00 0.00 0.00 47 1014.9
20190423235406 78 242 1.0 3.0 0.00 0.00 0.00 45 1014.9
20190423235306 78 241 1.0 3.0 0.00 0.00 0.00 45 1014.9
20190423235206 78 242 0.0 3.0 0.00 0.00 0.00 44 1014.9
20190423235106 78 243 0.0 3.0 0.00 0.00 0.00 44 1014.9
20190423235005 78 248 0.0 3.0 0.00 0.00 0.00 45 1014.9
20190423234906 78 244 0.0 3.0 0.00 0.00 0.00 44 1014.9
20190423234806 79 263 0.0 3.0 0.00 0.00 0.00 43 1014.9
20190423234706 79 276 0.0 1.0 0.00 0.00 0.00 44 1014.9
20190423234606 79 273 0.0 1.0 0.00 0.00 0.00 43 1014.9
20190423234505 79 269 1.0 2.0 0.00 0.00 0.00 44 1014.9
20190423234406 79 257 1.0 3.0 0.00 0.00 0.00 43 1014.9
20190423234306 80 259 1.0 3.0 0.00 0.00 0.00 43 1014.9
20190423234206 80 259 1.0 3.0 0.00 0.00 0.00 42 1014.9
20190423234105 80 260 1.0 3.0 0.00 0.00 0.00 43 1014.9
20190423234007 80 259 1.0 3.0 0.00 0.00 0.00 41 1014.9
20190423233906 80 254 1.0 4.0 0.00 0.00 0.00 42 1014.9
20190423233806 80 253 1.0 5.0 0.00 0.00 0.00 41 1014.9
20190423233705 80 254 1.0 5.0 0.00 0.00 0.00 40 1014.9
20190423233605 81 254 1.0 5.0 0.00 0.00 0.00 40 1014.9
20190423233506 81 254 1.0 5.0 0.00 0.00 0.00 40 1014.9
20190423233406 81 255 1.0 5.0 0.00 0.00 0.00 40 1014.9
20190423233306 81 257 1.0 5.0 0.00 0.00 0.00 40 1014.9
20190423233205 81 255 1.0 5.0 0.00 0.00 0.00 40 1014.9
20190423233105 82 256 2.0 5.0 0.00 0.00 0.00 39 1014.9
20190423233006 82 259 1.0 5.0 0.00 0.00 0.00 39 1014.9
20190423232906 82 263 1.0 5.0 0.00 0.00 0.00 39 1014.9
20190423232805 82 265 1.0 4.0 0.00 0.00 0.00 39 1014.9
20190423232705 82 263 1.0 4.0 0.00 0.00 0.00 39 1014.9
20190423232605 82 265 1.0 4.0 0.00 0.00 0.00 39 1014.9
20190423232506 82 264 1.0 4.0 0.00 0.00 0.00 38 1014.9
20190423232406 82 280 1.0 4.0 0.00 0.00 0.00 39 1014.9
20190423232305 82 292 1.0 4.0 0.00 0.00 0.00 39 1014.9
20190423232205 82 287 1.0 4.0 0.00 0.00 0.00 39 1014.9
20190423232105 82 289 1.0 4.0 0.00 0.00 0.00 39 1015.0
20190423232006 83 291 1.0 4.0 0.00 0.00 0.00 39 1014.9
20190423231906 83 291 2.0 4.0 0.00 0.00 0.00 38 1014.9
20190423231805 82 293 2.0 5.0 0.00 0.00 0.00 39 1014.9
20190423231705 83 289 2.0 5.0 0.00 0.00 0.00 39 1015.0
20190423231605 83 289 2.0 5.0 0.00 0.00 0.00 39 1015.0
20190423231506 83 287 2.0 5.0 0.00 0.00 0.00 38 1015.0
20190423231405 83 278 2.0 5.0 0.00 0.00 0.00 38 1015.0
20190423231306 83 275 2.0 6.0 0.00 0.00 0.00 39 1015.0
20190423231205 83 276 2.0 6.0 0.00 0.00 0.00 38 1015.0
20190423231105 83 272 2.0 6.0 0.00 0.00 0.00 39 1015.0
20190423231007 83 272 2.0 6.0 0.00 0.00 0.00 38 1015.0
20190423230905 83 271 2.0 6.0 0.00 0.00 0.00 37 1015.0
20190423230805 83 269 2.0 6.0 0.00 0.00 0.00 38 1015.0
20190423230705 83 272 2.0 6.0 0.00 0.00 0.00 38 1015.0
20190423230606 83 270 2.0 6.0 0.00 0.00 0.00 37 1014.9
20190423230506 83 269 3.0 6.0 0.00 0.00 0.00 37 1015.0
20190423230405 83 273 3.0 6.0 0.00 0.00 0.00 38 1015.0
20190423230305 83 275 3.0 6.0 0.00 0.00 0.00 37 1015.0
20190423230205 83 274 3.0 6.0 0.00 0.00 0.00 37 1015.0
20190423230106 83 276 3.0 6.0 0.00 0.00 0.00 37 1015.0
20190423230006 84 278 3.0 6.0 0.00 0.00 0.00 38 1015.0
20190423225905 84 277 3.0 7.0 0.00 0.00 0.00 38 1014.9
20190423225806 84 280 3.0 7.0 0.00 0.00 0.00 37 1014.9
20190423225706 84 274 3.0 7.0 0.00 0.00 0.00 38 1014.9
20190423225606 84 274 3.0 7.0 0.00 0.00 0.00 37 1014.9
20190423225506 84 277 3.0 7.0 0.00 0.00 0.00 37 1014.9
20190423225406 84 270 2.0 7.0 0.00 0.00 0.00 36 1014.9
20190423225306 84 268 3.0 7.0 0.00 0.00 0.00 36 1014.9
20190423225206 84 272 2.0 7.0 0.00 0.00 0.00 36 1014.9
20190423225106 85 270 2.0 7.0 0.00 0.00 0.00 36 1014.9
20190423225006 85 267 2.0 7.0 0.00 0.00 0.00 37 1014.9
20190423224906 85 267 2.0 6.0 0.00 0.00 0.00 36 1014.9
20190423224806 85 259 2.0 6.0 0.00 0.00 0.00 36 1014.9
20190423224705 85 262 2.0 6.0 0.00 0.00 0.00 36 1014.9
20190423224605 85 263 1.0 6.0 0.00 0.00 0.00 35 1014.9
20190423224506 85 261 1.0 6.0 0.00 0.00 0.00 36 1014.9
20190423224406 85 264 1.0 6.0 0.00 0.00 0.00 36 1014.9
20190423224306 86 255 1.0 6.0 0.00 0.00 0.00 37 1014.9
20190423224206 86 248 1.0 5.0 0.00 0.00 0.00 37 1014.9
20190423224105 86 231 1.0 5.0 0.00 0.00 0.00 38 1015.0
20190423224006 86 227 2.0 5.0 0.00 0.00 0.00 37 1014.9
20190423223905 86 224 2.0 5.0 0.00 0.00 0.00 37 1014.9
20190423223806 86 223 2.0 5.0 0.00 0.00 0.00 36 1014.9
20190423223705 85 242 2.0 9.0 0.00 0.00 0.00 36 1014.9
20190423223605 85 249 2.0 9.0 0.00 0.00 0.00 35 1014.9
20190423223506 85 238 2.0 9.0 0.00 0.00 0.00 35 1014.9
20190423223405 85 234 2.0 9.0 0.00 0.00 0.00 35 1014.9
20190423223305 85 238 2.0 9.0 0.00 0.00 0.00 35 1014.9
20190423223205 85 233 2.0 9.0 0.00 0.00 0.00 35 1014.9
20190423223105 85 246 2.0 9.0 0.00 0.00 0.00 35 1014.9
20190423223006 85 249 2.0 9.0 0.00 0.00 0.00 35 1015.0
20190423222905 85 263 2.0 9.0 0.00 0.00 0.00 36 1015.0
20190423222805 85 263 1.0 9.0 0.00 0.00 0.00 35 1014.9
20190423222705 85 246 2.0 6.0 0.00 0.00 0.00 36 1015.0
20190423222606 86 260 2.0 8.0 0.00 0.00 0.00 38 1015.0
20190423222506 85 272 2.0 8.0 0.00 0.00 0.00 36 1015.0
20190423222405 85 271 2.0 8.0 0.00 0.00 0.00 36 1015.0
20190423222305 85 272 2.0 8.0 0.00 0.00 0.00 36 1015.0
20190423222206 85 274 2.0 8.0 0.00 0.00 0.00 36 1015.0
20190423222106 85 276 2.0 8.0 0.00 0.00 0.00 36 1015.0
20190423222006 85 281 2.0 8.0 0.00 0.00 0.00 36 1015.0
20190423221905 85 282 2.0 8.0 0.00 0.00 0.00 36 1015.0
20190423221806 85 285 3.0 8.0 0.00 0.00 0.00 36 1015.0
20190423221706 85 277 3.0 8.0 0.00 0.00 0.00 35 1015.0
20190423221606 85 265 3.0 8.0 0.00 0.00 0.00 35 1014.9
20190423221505 85 267 3.0 8.0 0.00 0.00 0.00 34 1015.0
20190423221405 85 270 3.0 8.0 0.00 0.00 0.00 35 1014.9
20190423221306 85 269 2.0 8.0 0.00 0.00 0.00 37 1014.9
20190423221206 85 268 3.0 8.0 0.00 0.00 0.00 36 1014.9
20190423221106 85 272 3.0 8.0 0.00 0.00 0.00 35 1015.0
20190423221005 85 267 3.0 8.0 0.00 0.00 0.00 36 1015.0
20190423220906 85 269 3.0 8.0 0.00 0.00 0.00 36 1015.0
20190423220806 85 274 2.0 8.0 0.00 0.00 0.00 35 1014.9
20190423220706 85 287 2.0 7.0 0.00 0.00 0.00 36 1014.9
20190423220605 85 298 3.0 10.0 0.00 0.00 0.00 36 1015.0
20190423220506 85 299 3.0 10.0 0.00 0.00 0.00 39 1015.0
20190423220406 85 298 3.0 10.0 0.00 0.00 0.00 36 1015.0
20190423220306 85 297 3.0 10.0 0.00 0.00 0.00 36 1015.0
20190423220205 85 302 3.0 10.0 0.00 0.00 0.00 36 1015.0
20190423220105 85 301 3.0 10.0 0.00 0.00 0.00 36 1015.0
20190423220006 85 296 3.0 10.0 0.00 0.00 0.00 36 1015.0
20190423215905 85 296 3.0 10.0 0.00 0.00 0.00 35 1015.0
20190423215805 85 294 3.0 10.0 0.00 0.00 0.00 39 1015.0
20190423215705 85 297 3.0 10.0 0.00 0.00 0.00 36 1015.0
20190423215605 85 297 2.0 8.0 0.00 0.00 0.00 37 1015.1
20190423215506 85 288 3.0 7.0 0.00 0.00 0.00 36 1015.0
20190423215405 85 294 3.0 7.0 0.00 0.00 0.00 36 1015.0
20190423215305 84 294 3.0 7.0 0.00 0.00 0.00 36 1015.0
20190423215206 85 293 4.0 8.0 0.00 0.00 0.00 37 1015.1
20190423215106 84 301 4.0 11.0 0.00 0.00 0.00 37 1015.1
20190423215006 85 307 4.0 11.0 0.00 0.00 0.00 36 1015.0
20190423214905 85 310 4.0 11.0 0.00 0.00 0.00 36 1015.1
20190423214805 85 313 4.0 11.0 0.00 0.00 0.00 36 1015.1
20190423214705 85 312 4.0 11.0 0.00 0.00 0.00 36 1015.1
20190423214606 85 312 4.0 11.0 0.00 0.00 0.00 36 1015.0
20190423214506 85 315 4.0 11.0 0.00 0.00 0.00 36 1015.0
20190423214405 85 311 4.0 11.0 0.00 0.00 0.00 36 1015.1
20190423214306 85 314 4.0 11.0 0.00 0.00 0.00 35 1015.0
20190423214206 85 315 3.0 11.0 0.00 0.00 0.00 36 1015.0
20190423214105 85 309 3.0 9.0 0.00 0.00 0.00 36 1015.0
20190423214006 85 308 4.0 9.0 0.00 0.00 0.00 36 1015.1
20190423213905 85 308 4.0 9.0 0.00 0.00 0.00 36 1015.1
20190423213806 85 307 4.0 10.0 0.00 0.00 0.00 35 1015.1
20190423213706 85 304 4.0 10.0 0.00 0.00 0.00 37 1015.1
20190423213606 85 302 4.0 10.0 0.00 0.00 0.00 35 1015.1
20190423213405 85 306 4.0 10.0 0.00 0.00 0.00 35 1015.0
20190423213305 85 304 4.0 10.0 0.00 0.00 0.00 34 1015.1
20190423213205 85 304 3.0 10.0 0.00 0.00 0.00 34 1015.1
20190423213106 85 305 3.0 10.0 0.00 0.00 0.00 36 1015.1
20190423213006 85 302 3.0 10.0 0.00 0.00 0.00 34 1015.1
20190423212905 86 295 3.0 10.0 0.00 0.00 0.00 34 1015.1
20190423212805 86 281 2.0 7.0 0.00 0.00 0.00 34 1015.1
20190423212705 86 283 2.0 7.0 0.00 0.00 0.00 34 1015.1
20190423212606 86 279 2.0 7.0 0.00 0.00 0.00 34 1015.1
20190423212506 86 262 2.0 5.0 0.00 0.00 0.00 35 1015.1
20190423212405 86 252 2.0 5.0 0.00 0.00 0.00 35 1015.1
20190423212305 86 240 2.0 5.0 0.00 0.00 0.00 35 1015.1
20190423212205 86 241 2.0 5.0 0.00 0.00 0.00 35 1015.2
20190423212106 86 242 2.0 5.0 0.00 0.00 0.00 34 1015.2
20190423212006 86 244 2.0 6.0 0.00 0.00 0.00 32 1015.1
20190423211905 86 247 2.0 6.0 0.00 0.00 0.00 33 1015.2
20190423211805 86 262 3.0 8.0 0.00 0.00 0.00 34 1015.2
20190423211706 86 275 3.0 11.0 0.00 0.00 0.00 33 1015.2
20190423211606 86 275 3.0 11.0 0.00 0.00 0.00 34 1015.2
20190423211506 86 280 3.0 11.0 0.00 0.00 0.00 35 1015.3
20190423211405 86 280 3.0 11.0 0.00 0.00 0.00 34 1015.2
20190423211305 86 278 3.0 11.0 0.00 0.00 0.00 33 1015.2
20190423211206 86 275 3.0 11.0 0.00 0.00 0.00 34 1015.2
20190423211106 86 279 3.0 11.0 0.00 0.00 0.00 33 1015.2
20190423211006 86 284 4.0 11.0 0.00 0.00 0.00 34 1015.2
20190423210905 86 285 4.0 11.0 0.00 0.00 0.00 33 1015.2
20190423210805 86 285 3.0 11.0 0.00 0.00 0.00 31 1015.1
20190423210706 86 277 3.0 10.0 0.00 0.00 0.00 33 1015.2
20190423210606 86 280 3.0 10.0 0.00 0.00 0.00 32 1015.2
20190423210506 86 282 4.0 10.0 0.00 0.00 0.00 32 1015.2
20190423210405 86 282 4.0 10.0 0.00 0.00 0.00 34 1015.3
20190423210305 86 280 4.0 10.0 0.00 0.00 0.00 35 1015.2
20190423210206 86 277 4.0 10.0 0.00 0.00 0.00 32 1015.2
20190423210106 86 275 4.0 10.0 0.00 0.00 0.00 33 1015.3
20190423210006 86 268 4.0 10.0 0.00 0.00 0.00 33 1015.2
20190423205906 86 256 4.0 10.0 0.00 0.00 0.00 35 1015.3
20190423205806 86 247 4.0 10.0 0.00 0.00 0.00 34 1015.2
20190423205706 86 249 4.0 10.0 0.00 0.00 0.00 33 1015.2
20190423205605 86 241 4.0 10.0 0.00 0.00 0.00 33 1015.2
20190423205506 86 233 4.0 10.0 0.00 0.00 0.00 33 1015.2
20190423205406 86 239 4.0 10.0 0.00 0.00 0.00 32 1015.3
20190423205306 86 247 4.0 10.0 0.00 0.00 0.00 33 1015.3
20190423205206 86 264 4.0 10.0 0.00 0.00 0.00 33 1015.3
20190423205105 86 270 4.0 10.0 0.00 0.00 0.00 32 1015.2
20190423205006 86 277 4.0 10.0 0.00 0.00 0.00 32 1015.2
20190423204905 86 287 3.0 10.0 0.00 0.00 0.00 32 1015.2
20190423204806 86 295 3.0 10.0 0.00 0.00 0.00 33 1015.3
20190423204705 86 290 3.0 10.0 0.00 0.00 0.00 34 1015.3
20190423204605 86 297 3.0 10.0 0.00 0.00 0.00 35 1015.3
20190423204506 86 300 3.0 10.0 0.00 0.00 0.00 32 1015.3
20190423204405 86 298 3.0 10.0 0.00 0.00 0.00 34 1015.3
20190423204305 86 301 3.0 10.0 0.00 0.00 0.00 32 1015.4
20190423204205 86 289 3.0 12.0 0.00 0.00 0.00 32 1015.3
20190423204106 86 282 3.0 12.0 0.00 0.00 0.00 35 1015.3
20190423204006 86 277 4.0 12.0 0.00 0.00 0.00 33 1015.3
20190423203905 86 278 4.0 12.0 0.00 0.00 0.00 35 1015.3
20190423203805 86 284 5.0 12.0 0.00 0.00 0.00 36 1015.4
20190423203706 86 295 5.0 14.0 0.00 0.00 0.00 32 1015.2
20190423203606 86 300 5.0 14.0 0.00 0.00 0.00 36 1015.3
20190423203505 86 302 5.0 14.0 0.00 0.00 0.00 35 1015.4
20190423203405 86 301 5.0 14.0 0.00 0.00 0.00 33 1015.4
20190423203306 86 300 5.0 14.0 0.00 0.00 0.00 33 1015.4
20190423203206 86 304 5.0 14.0 0.00 0.00 0.00 34 1015.4
20190423203105 86 306 5.0 14.0 0.00 0.00 0.00 34 1015.4
20190423203006 86 308 5.0 14.0 0.00 0.00 0.00 34 1015.4
20190423202906 86 311 5.0 14.0 0.00 0.00 0.00 33 1015.4
20190423202806 86 314 5.0 14.0 0.00 0.00 0.00 32 1015.4
20190423202705 86 311 4.0 12.0 0.00 0.00 0.00 34 1015.5
20190423202606 86 310 4.0 12.0 0.00 0.00 0.00 34 1015.5
20190423202506 86 308 5.0 12.0 0.00 0.00 0.00 33 1015.5
20190423202406 86 310 5.0 12.0 0.00 0.00 0.00 33 1015.5
20190423202306 86 312 4.0 12.0 0.00 0.00 0.00 32 1015.6
20190423202206 86 308 4.0 12.0 0.00 0.00 0.00 34 1015.6
20190423202105 86 308 4.0 12.0 0.00 0.00 0.00 35 1015.6
20190423202006 86 307 4.0 12.0 0.00 0.00 0.00 35 1015.6
20190423201905 86 306 4.0 12.0 0.00 0.00 0.00 33 1015.5
20190423201805 86 307 4.0 12.0 0.00 0.00 0.00 34 1015.6
20190423201705 86 310 4.0 10.0 0.00 0.00 0.00 34 1015.6
20190423201605 86 303 5.0 10.0 0.00 0.00 0.00 34 1015.6
20190423201506 86 310 4.0 10.0 0.00 0.00 0.00 33 1015.6
20190423201406 86 309 5.0 10.0 0.00 0.00 0.00 36 1015.6
20190423201305 85 299 5.0 10.0 0.00 0.00 0.00 33 1015.6
20190423201206 85 295 5.0 10.0 0.00 0.00 0.00 33 1015.6
20190423201105 85 287 5.0 10.0 0.00 0.00 0.00 33 1015.6
20190423201006 86 284 4.0 10.0 0.00 0.00 0.00 33 1015.6
20190423200906 86 284 4.0 10.0 0.00 0.00 0.00 33 1015.7
20190423200806 86 269 4.0 10.0 0.00 0.00 0.00 35 1015.7
20190423200705 86 254 4.0 10.0 0.00 0.00 0.00 33 1015.8
20190423200605 86 271 4.0 11.0 0.00 0.00 0.00 33 1015.8
20190423200506 86 265 4.0 11.0 0.00 0.00 0.00 34 1015.8
20190423200405 86 258 3.0 11.0 0.00 0.00 0.00 32 1015.8
20190423200305 86 262 3.0 11.0 0.00 0.00 0.00 33 1015.9
20190423200205 86 263 3.0 11.0 0.00 0.00 0.00 33 1015.9
20190423200105 86 269 3.0 11.0 0.00 0.00 0.00 34 1015.8
20190423200006 86 262 3.0 11.0 0.00 0.00 0.00 38 1015.8
20190423195905 86 251 3.0 11.0 0.00 0.00 0.00 33 1015.8
20190423195805 86 249 3.0 11.0 0.00 0.00 0.00 32 1015.8
20190423195705 86 262 2.0 11.0 0.00 0.00 0.00 33 1015.8
20190423195606 86 251 2.0 8.0 0.00 0.00 0.00 33 1015.9
20190423195506 86 255 3.0 8.0 0.00 0.00 0.00 35 1015.8
20190423195405 86 278 3.0 9.0 0.00 0.00 0.00 38 1016.0
20190423195306 86 283 3.0 9.0 0.00 0.00 0.00 35 1015.9
20190423195206 86 292 4.0 9.0 0.00 0.00 0.00 35 1015.9
20190423195106 85 294 3.0 9.0 0.00 0.00 0.00 33 1016.0
20190423195006 85 301 4.0 9.0 0.00 0.00 0.00 36 1016.1
20190423194906 85 296 4.0 9.0 0.00 0.00 0.00 37 1016.1
20190423194806 85 289 4.0 12.0 0.00 0.00 0.00 34 1016.1
20190423194706 85 279 4.0 12.0 0.00 0.00 0.00 33 1016.2
20190423194606 85 274 4.0 12.0 0.00 0.00 0.00 33 1016.2
20190423194506 85 270 4.0 12.0 0.00 0.00 0.00 34 1016.2
20190423194406 85 260 4.0 12.0 0.00 0.00 0.00 34 1016.2
20190423194306 85 268 4.0 12.0 0.00 0.00 0.00 33 1016.2
20190423194206 85 263 4.0 12.0 0.00 0.00 0.00 33 1016.3
20190423194105 85 250 4.0 12.0 0.00 0.00 0.00 33 1016.3
20190423194005 85 244 4.0 12.0 0.00 0.00 0.00 32 1016.3
20190423193906 86 249 4.0 12.0 0.00 0.00 0.00 33 1016.3
20190423193806 86 248 4.0 11.0 0.00 0.00 0.00 33 1016.4
20190423193705 86 256 4.0 11.0 0.00 0.00 0.00 35 1016.5
20190423193606 85 252 4.0 11.0 0.00 0.00 0.00 35 1016.3
20190423193505 85 247 5.0 11.0 0.00 0.00 0.00 35 1016.3
20190423193406 85 254 5.0 12.0 0.00 0.00 0.00 34 1016.4
20190423193306 86 250 5.0 12.0 0.00 0.00 0.00 36 1016.4
20190423193206 85 251 5.0 12.0 0.00 0.00 0.00 33 1016.5
20190423193105 85 264 5.0 12.0 0.00 0.00 0.00 36 1016.5
20190423193007 85 271 5.0 12.0 0.00 0.00 0.00 35 1016.5
20190423192906 85 276 5.0 12.0 0.00 0.00 0.00 33 1016.6
20190423192806 85 292 5.0 12.0 0.00 0.00 0.00 35 1016.5
20190423192706 85 292 5.0 12.0 0.00 0.00 0.00 35 1016.6
20190423192606 85 292 5.0 12.0 0.00 0.00 0.00 35 1016.5
20190423192506 85 291 5.0 12.0 0.00 0.00 0.00 35 1016.5
20190423192406 85 294 4.0 11.0 0.00 0.00 0.00 34 1016.6
20190423192305 85 292 4.0 11.0 0.00 0.00 0.00 34 1016.6
20190423192205 86 293 3.0 11.0 0.00 0.00 0.00 34 1016.6
20190423192105 86 285 3.0 11.0 0.00 0.00 0.00 34 1016.6
20190423192006 86 272 3.0 11.0 0.00 0.00 0.00 34 1016.7
20190423191905 86 246 3.0 8.0 0.00 0.00 0.00 35 1016.6
20190423191805 86 238 3.0 8.0 0.00 0.00 0.00 35 1016.6
20190423191705 86 242 2.0 8.0 0.00 0.00 0.00 35 1016.6
20190423191605 86 247 2.0 8.0 0.00 0.00 0.00 36 1016.7
20190423191506 86 248 2.0 8.0 0.00 0.00 0.00 36 1016.6
20190423191405 86 234 2.0 8.0 0.00 0.00 0.00 39 1016.6
20190423191305 86 240 3.0 9.0 0.00 0.00 0.00 39 1016.7
20190423191205 86 248 3.0 9.0 0.00 0.00 0.00 37 1016.7
20190423191105 86 264 3.0 9.0 0.00 0.00 0.00 35 1016.7
20190423191006 86 267 3.0 9.0 0.00 0.00 0.00 36 1016.8
20190423190905 86 280 3.0 9.0 0.00 0.00 0.00 38 1016.8
20190423190805 86 280 3.0 9.0 0.00 0.00 0.00 37 1016.7
20190423190705 85 272 3.0 9.0 0.00 0.00 0.00 37 1016.7
20190423190606 85 272 3.0 9.0 0.00 0.00 0.00 36 1016.8
20190423190506 85 276 4.0 9.0 0.00 0.00 0.00 36 1016.8
20190423190405 85 282 4.0 9.0 0.00 0.00 0.00 37 1016.9
20190423190305 85 278 3.0 9.0 0.00 0.00 0.00 37 1016.8
20190423190205 85 277 3.0 9.0 0.00 0.00 0.00 35 1016.9
20190423190106 85 271 3.0 9.0 0.00 0.00 0.00 36 1016.9
20190423190006 85 270 3.0 9.0 0.00 0.00 0.00 38 1016.9
20190423185905 85 267 3.0 9.0 0.00 0.00 0.00 35 1016.8
20190423185805 85 269 3.0 9.0 0.00 0.00 0.00 36 1016.9
20190423185706 85 270 3.0 9.0 0.00 0.00 0.00 36 1016.9
20190423185606 85 267 3.0 9.0 0.00 0.00 0.00 37 1016.9
20190423185506 85 262 3.0 9.0 0.00 0.00 0.00 35 1017.0
20190423185405 85 252 3.0 10.0 0.00 0.00 0.00 35 1017.0
20190423185305 85 262 3.0 10.0 0.00 0.00 0.00 35 1017.0
20190423185206 85 266 3.0 10.0 0.00 0.00 0.00 34 1017.0
20190423185106 85 263 3.0 10.0 0.00 0.00 0.00 33 1017.1
20190423185006 85 263 3.0 10.0 0.00 0.00 0.00 36 1017.0
20190423184905 85 266 3.0 10.0 0.00 0.00 0.00 35 1017.1
20190423184806 85 267 3.0 10.0 0.00 0.00 0.00 37 1017.1
20190423184706 85 276 4.0 10.0 0.00 0.00 0.00 34 1017.1
20190423184606 85 283 4.0 10.0 0.00 0.00 0.00 34 1017.1
20190423184505 85 287 4.0 10.0 0.00 0.00 0.00 35 1017.1
20190423184406 85 289 3.0 9.0 0.00 0.00 0.00 34 1017.1
20190423184306 86 285 3.0 9.0 0.00 0.00 0.00 34 1017.1
20190423184206 86 278 3.0 9.0 0.00 0.00 0.00 35 1017.1
20190423184105 86 292 3.0 8.0 0.00 0.00 0.00 33 1017.1
20190423184006 86 291 3.0 8.0 0.00 0.00 0.00 34 1017.2
20190423183906 86 290 3.0 8.0 0.00 0.00 0.00 34 1017.2
20190423183805 86 288 3.0 8.0 0.00 0.00 0.00 34 1017.2
20190423183705 86 285 3.0 8.0 0.00 0.00 0.00 34 1017.1
20190423183605 86 282 3.0 7.0 0.00 0.00 0.00 33 1017.2
20190423183506 86 284 3.0 7.0 0.00 0.00 0.00 36 1017.2
20190423183405 86 286 3.0 7.0 0.00 0.00 0.00 34 1017.2
20190423183305 86 280 3.0 8.0 0.00 0.00 0.00 37 1017.3
20190423183205 86 278 3.0 8.0 0.00 0.00 0.00 34 1017.2
20190423183106 85 268 3.0 8.0 0.00 0.00 0.00 34 1017.2
20190423183006 85 260 3.0 8.0 0.00 0.00 0.00 34 1017.2
20190423182905 85 260 3.0 8.0 0.00 0.00 0.00 33 1017.2
20190423182805 85 259 3.0 8.0 0.00 0.00 0.00 33 1017.2
20190423182706 85 246 3.0 8.0 0.00 0.00 0.00 33 1017.2
20190423182605 85 246 4.0 8.0 0.00 0.00 0.00 33 1017.3
20190423182505 85 252 4.0 8.0 0.00 0.00 0.00 32 1017.2
20190423182405 85 260 4.0 8.0 0.00 0.00 0.00 33 1017.3
20190423182305 85 276 3.0 7.0 0.00 0.00 0.00 34 1017.3
20190423182206 85 271 3.0 7.0 0.00 0.00 0.00 37 1017.3
20190423182105 85 282 3.0 7.0 0.00 0.00 0.00 38 1017.3
20190423182005 85 299 3.0 7.0 0.00 0.00 0.00 34 1017.3
20190423181906 85 306 3.0 7.0 0.00 0.00 0.00 34 1017.4
20190423181806 85 310 3.0 8.0 0.00 0.00 0.00 34 1017.3
20190423181705 85 319 3.0 9.0 0.00 0.00 0.00 35 1017.4
20190423181606 85 320 3.0 9.0 0.00 0.00 0.00 34 1017.3
20190423181505 85 315 3.0 9.0 0.00 0.00 0.00 35 1017.4
20190423181406 85 309 3.0 9.0 0.00 0.00 0.00 34 1017.4
20190423181306 85 304 3.0 9.0 0.00 0.00 0.00 34 1017.4
20190423181206 85 304 3.0 9.0 0.00 0.00 0.00 37 1017.3
20190423181105 85 302 3.0 9.0 0.00 0.00 0.00 37 1017.4
20190423181006 85 300 3.0 9.0 0.00 0.00 0.00 32 1017.4
20190423180906 85 298 3.0 9.0 0.00 0.00 0.00 32 1017.3
20190423180806 85 291 3.0 9.0 0.00 0.00 0.00 33 1017.5
20190423180705 85 279 3.0 7.0 0.00 0.00 0.00 34 1017.4
20190423180606 85 270 3.0 7.0 0.00 0.00 0.00 34 1017.4
20190423180506 85 263 3.0 7.0 0.00 0.00 0.00 34 1017.5
20190423180406 85 255 3.0 7.0 0.00 0.00 0.00 36 1017.5
20190423180306 85 248 3.0 6.0 0.00 0.00 0.00 36 1017.4
20190423180206 85 250 3.0 6.0 0.00 0.00 0.00 34 1017.4
20190423180105 85 251 3.0 6.0 0.00 0.00 0.00 36 1017.5
20190423180007 85 240 3.0 6.0 0.00 0.00 0.00 35 1017.4
20190423175905 85 235 3.0 6.0 0.00 0.00 0.00 34 1017.4
20190423175805 84 238 3.0 6.0 0.00 0.00 0.00 34 1017.4
20190423175705 84 252 3.0 7.0 0.00 0.00 0.00 33 1017.4
20190423175605 84 258 3.0 7.0 0.00 0.00 0.00 33 1017.5
20190423175506 84 268 3.0 7.0 0.00 0.00 0.00 33 1017.4
20190423175405 84 270 3.0 7.0 0.00 0.00 0.00 35 1017.5
20190423175305 84 271 2.0 7.0 0.00 0.00 0.00 36 1017.5
20190423175205 84 270 2.0 7.0 0.00 0.00 0.00 34 1017.6
20190423175105 84 262 2.0 7.0 0.00 0.00 0.00 37 1017.6
20190423175006 84 262 2.0 7.0 0.00 0.00 0.00 39 1017.6
20190423174905 84 263 2.0 7.0 0.00 0.00 0.00 35 1017.6
20190423174805 84 255 2.0 7.0 0.00 0.00 0.00 34 1017.5
20190423174705 85 223 2.0 6.0 0.00 0.00 0.00 37 1017.6
20190423174606 84 206 2.0 7.0 0.00 0.00 0.00 40 1017.6
20190423174506 84 206 2.0 7.0 0.00 0.00 0.00 41 1017.6
20190423174405 84 209 2.0 7.0 0.00 0.00 0.00 40 1017.6
20190423174305 84 217 2.0 7.0 0.00 0.00 0.00 37 1017.6
20190423174206 84 216 2.0 7.0 0.00 0.00 0.00 38 1017.7
20190423174106 84 217 3.0 7.0 0.00 0.00 0.00 38 1017.6
20190423174006 84 222 2.0 7.0 0.00 0.00 0.00 39 1017.6
20190423173905 84 217 3.0 7.0 0.00 0.00 0.00 38 1017.7
20190423173806 84 209 3.0 7.0 0.00 0.00 0.00 37 1017.7
20190423173706 84 222 2.0 7.0 0.00 0.00 0.00 38 1017.7
20190423173606 84 244 2.0 7.0 0.00 0.00 0.00 37 1017.7
20190423173505 84 256 2.0 7.0 0.00 0.00 0.00 37 1017.7
20190423173406 84 259 2.0 7.0 0.00 0.00 0.00 40 1017.8
20190423173306 84 264 3.0 7.0 0.00 0.00 0.00 42 1017.8
20190423173205 84 275 3.0 7.0 0.00 0.00 0.00 37 1017.7
20190423173105 84 275 2.0 7.0 0.00 0.00 0.00 40 1017.8
20190423173006 83 279 3.0 7.0 0.00 0.00 0.00 39 1017.7
20190423172905 83 296 3.0 8.0 0.00 0.00 0.00 40 1017.8
20190423172806 83 313 3.0 8.0 0.00 0.00 0.00 39 1017.8
20190423172705 83 320 3.0 8.0 0.00 0.00 0.00 39 1017.8
20190423172605 83 320 3.0 8.0 0.00 0.00 0.00 36 1017.8
20190423172506 83 320 3.0 8.0 0.00 0.00 0.00 38 1017.8
20190423172405 83 316 3.0 8.0 0.00 0.00 0.00 38 1017.8
20190423172305 83 313 3.0 8.0 0.00 0.00 0.00 41 1017.9
20190423172205 83 308 3.0 8.0 0.00 0.00 0.00 40 1017.9
20190423172106 83 308 3.0 8.0 0.00 0.00 0.00 39 1017.9
20190423172006 83 308 2.0 8.0 0.00 0.00 0.00 40 1017.8
20190423171905 83 303 2.0 7.0 0.00 0.00 0.00 42 1017.9
20190423171805 83 295 2.0 6.0 0.00 0.00 0.00 41 1017.9
20190423171705 83 290 2.0 6.0 0.00 0.00 0.00 42 1018.0
20190423171606 83 286 2.0 6.0 0.00 0.00 0.00 40 1018.0
20190423171505 83 287 2.0 7.0 0.00 0.00 0.00 40 1018.0
20190423171405 83 292 3.0 7.0 0.00 0.00 0.00 44 1018.0
20190423171305 83 296 3.0 7.0 0.00 0.00 0.00 42 1018.0
20190423171206 83 303 3.0 7.0 0.00 0.00 0.00 42 1018.0
20190423171106 83 305 3.0 7.0 0.00 0.00 0.00 42 1018.0
20190423171005 83 305 3.0 7.0 0.00 0.00 0.00 41 1018.0
20190423170905 82 305 3.0 7.0 0.00 0.00 0.00 41 1018.0
20190423170806 82 299 3.0 7.0 0.00 0.00 0.00 39 1018.1
20190423170706 82 297 3.0 7.0 0.00 0.00 0.00 41 1018.1
20190423170606 82 297 3.0 7.0 0.00 0.00 0.00 40 1018.1
20190423170506 82 291 3.0 6.0 0.00 0.00 0.00 41 1018.1
20190423170406 82 279 3.0 6.0 0.00 0.00 0.00 41 1018.1
20190423170306 82 275 2.0 6.0 0.00 0.00 0.00 40 1018.1
20190423170205 83 269 2.0 6.0 0.00 0.00 0.00 41 1018.2
20190423170105 83 267 2.0 6.0 0.00 0.00 0.00 45 1018.2
20190423170006 82 270 3.0 6.0 0.00 0.00 0.00 44 1018.1
20190423165905 82 282 3.0 7.0 0.00 0.00 0.00 42 1018.2
20190423165806 82 283 3.0 7.0 0.00 0.00 0.00 42 1018.2
20190423165705 82 282 3.0 7.0 0.00 0.00 0.00 44 1018.2
20190423165605 82 283 3.0 7.0 0.00 0.00 0.00 45 1018.2
20190423165506 82 289 3.0 7.0 0.00 0.00 0.00 43 1018.2
20190423165405 82 297 3.0 7.0 0.00 0.00 0.00 43 1018.2
20190423165305 82 298 3.0 7.0 0.00 0.00 0.00 43 1018.3
20190423165205 82 306 3.0 9.0 0.00 0.00 0.00 43 1018.3
20190423165105 82 306 3.0 9.0 0.00 0.00 0.00 44 1018.3
20190423165006 82 311 3.0 9.0 0.00 0.00 0.00 43 1018.3
20190423164905 82 311 3.0 9.0 0.00 0.00 0.00 43 1018.3
20190423164805 82 316 3.0 9.0 0.00 0.00 0.00 44 1018.3
20190423164705 82 319 3.0 9.0 0.00 0.00 0.00 42 1018.3
20190423164605 82 313 3.0 9.0 0.00 0.00 0.00 44 1018.3
20190423164506 82 312 3.0 9.0 0.00 0.00 0.00 44 1018.3
20190423164405 82 311 4.0 9.0 0.00 0.00 0.00 44 1018.4
20190423164305 81 312 3.0 13.0 0.00 0.00 0.00 44 1018.3
20190423164205 81 304 4.0 13.0 0.00 0.00 0.00 47 1018.4
20190423164106 81 296 3.0 13.0 0.00 0.00 0.00 44 1018.4
20190423164005 81 291 3.0 13.0 0.00 0.00 0.00 46 1018.5
20190423163905 81 286 3.0 13.0 0.00 0.00 0.00 44 1018.5
20190423163805 81 287 3.0 13.0 0.00 0.00 0.00 46 1018.5
20190423163706 81 283 3.0 13.0 0.00 0.00 0.00 43 1018.5
20190423163606 81 288 3.0 13.0 0.00 0.00 0.00 43 1018.6
20190423163506 81 280 3.0 13.0 0.00 0.00 0.00 43 1018.5
20190423163405 81 276 2.0 13.0 0.00 0.00 0.00 47 1018.6
20190423163306 81 270 2.0 6.0 0.00 0.00 0.00 46 1018.6
20190423163206 81 272 2.0 6.0 0.00 0.00 0.00 51 1018.5
20190423163105 81 283 2.0 4.0 0.00 0.00 0.00 51 1018.6
20190423163006 81 289 3.0 8.0 0.00 0.00 0.00 49 1018.6
20190423162906 81 298 3.0 8.0 0.00 0.00 0.00 48 1018.7
20190423162805 80 304 3.0 8.0 0.00 0.00 0.00 48 1018.6
20190423162705 80 316 3.0 8.0 0.00 0.00 0.00 48 1018.6
20190423162605 80 319 3.0 8.0 0.00 0.00 0.00 47 1018.7
20190423162506 80 322 3.0 8.0 0.00 0.00 0.00 48 1018.7
20190423162406 80 321 3.0 8.0 0.00 0.00 0.00 47 1018.7
20190423162305 80 317 3.0 8.0 0.00 0.00 0.00 48 1018.7
20190423162205 80 315 3.0 8.0 0.00 0.00 0.00 48 1018.7
20190423162105 80 314 3.0 8.0 0.00 0.00 0.00 48 1018.7
20190423162006 80 315 3.0 8.0 0.00 0.00 0.00 49 1018.7
20190423161905 80 316 2.0 6.0 0.00 0.00 0.00 49 1018.7
20190423161806 80 315 2.0 6.0 0.00 0.00 0.00 51 1018.7
20190423161705 80 303 2.0 4.0 0.00 0.00 0.00 50 1018.8
20190423161605 80 295 2.0 4.0 0.00 0.00 0.00 49 1018.7
20190423161506 80 288 2.0 5.0 0.00 0.00 0.00 48 1018.7
20190423161405 80 284 3.0 7.0 0.00 0.00 0.00 51 1018.7
20190423161305 80 279 2.0 8.0 0.00 0.00 0.00 53 1018.7
20190423161205 79 278 2.0 8.0 0.00 0.00 0.00 51 1018.7
20190423161106 79 270 2.0 8.0 0.00 0.00 0.00 53 1018.8
20190423161006 79 262 3.0 8.0 0.00 0.00 0.00 50 1018.8
20190423160905 79 252 3.0 8.0 0.00 0.00 0.00 49 1018.8
20190423160805 79 257 3.0 8.0 0.00 0.00 0.00 50 1018.8
20190423160706 79 273 3.0 8.0 0.00 0.00 0.00 49 1018.8
20190423160606 80 288 3.0 8.0 0.00 0.00 0.00 50 1018.8
20190423160505 80 304 3.0 8.0 0.00 0.00 0.00 50 1018.8
20190423160405 80 328 3.0 8.0 0.00 0.00 0.00 51 1018.8
20190423160306 79 339 3.0 8.0 0.00 0.00 0.00 53 1018.8
20190423160205 79 335 3.0 8.0 0.00 0.00 0.00 52 1018.9
20190423160105 79 333 3.0 8.0 0.00 0.00 0.00 50 1018.8
20190423160006 79 331 4.0 8.0 0.00 0.00 0.00 50 1018.8
20190423155905 79 333 4.0 8.0 0.00 0.00 0.00 53 1018.8
20190423155805 79 333 3.0 8.0 0.00 0.00 0.00 54 1018.8
20190423155705 78 331 3.0 7.0 0.00 0.00 0.00 54 1018.8
20190423155605 78 324 3.0 7.0 0.00 0.00 0.00 51 1018.7
20190423155506 78 319 3.0 7.0 0.00 0.00 0.00 53 1018.8
20190423155405 78 312 4.0 7.0 0.00 0.00 0.00 51 1018.8
20190423155305 78 311 4.0 7.0 0.00 0.00 0.00 52 1018.8
20190423155205 78 313 4.0 7.0 0.00 0.00 0.00 51 1018.8
20190423155105 78 316 3.0 7.0 0.00 0.00 0.00 50 1018.8
20190423155006 78 315 3.0 7.0 0.00 0.00 0.00 51 1018.8
20190423154905 78 312 3.0 7.0 0.00 0.00 0.00 51 1018.8
20190423154805 78 311 3.0 7.0 0.00 0.00 0.00 51 1018.8
20190423154705 78 310 2.0 7.0 0.00 0.00 0.00 49 1018.8
20190423154605 78 309 2.0 7.0 0.00 0.00 0.00 48 1018.9
20190423154506 78 308 2.0 7.0 0.00 0.00 0.00 49 1018.9
20190423154405 78 310 2.0 7.0 0.00 0.00 0.00 49 1018.8
20190423154305 78 319 2.0 7.0 0.00 0.00 0.00 55 1018.9
20190423154205 78 335 2.0 5.0 0.00 0.00 0.00 55 1018.9
20190423154105 78 339 2.0 5.0 0.00 0.00 0.00 54 1018.9
20190423154005 78 341 2.0 5.0 0.00 0.00 0.00 55 1019.0
20190423153905 78 340 2.0 5.0 0.00 0.00 0.00 59 1018.9
20190423153805 78 336 2.0 5.0 0.00 0.00 0.00 56 1019.0
20190423153705 78 332 3.0 5.0 0.00 0.00 0.00 56 1018.9
20190423153605 77 332 3.0 5.0 0.00 0.00 0.00 56 1018.9
20190423153506 77 335 3.0 5.0 0.00 0.00 0.00 54 1018.9
20190423153406 77 338 3.0 5.0 0.00 0.00 0.00 53 1018.9
20190423153305 77 330 2.0 5.0 0.00 0.00 0.00 52 1018.9
20190423153205 77 322 2.0 5.0 0.00 0.00 0.00 54 1018.9
20190423153105 77 315 3.0 5.0 0.00 0.00 0.00 52 1018.9
20190423153006 77 309 3.0 5.0 0.00 0.00 0.00 52 1019.0
20190423152905 77 298 3.0 7.0 0.00 0.00 0.00 51 1018.9
20190423152805 77 288 3.0 7.0 0.00 0.00 0.00 53 1018.9
20190423152705 77 279 3.0 7.0 0.00 0.00 0.00 54 1018.9
20190423152606 77 264 2.0 7.0 0.00 0.00 0.00 52 1019.0
20190423152506 77 251 2.0 7.0 0.00 0.00 0.00 55 1019.0
20190423152405 77 244 2.0 7.0 0.00 0.00 0.00 52 1019.0
20190423152305 77 246 2.0 7.0 0.00 0.00 0.00 51 1019.0
20190423152206 77 247 2.0 7.0 0.00 0.00 0.00 51 1019.1
20190423152106 77 250 2.0 7.0 0.00 0.00 0.00 51 1019.0
20190423152006 77 264 2.0 7.0 0.00 0.00 0.00 53 1019.1
20190423151905 77 277 2.0 5.0 0.00 0.00 0.00 50 1019.0
20190423151806 77 294 2.0 8.0 0.00 0.00 0.00 54 1019.0
20190423151706 76 298 2.0 8.0 0.00 0.00 0.00 54 1019.0
20190423151605 76 306 2.0 8.0 0.00 0.00 0.00 53 1019.0
20190423151505 76 311 3.0 8.0 0.00 0.00 0.00 55 1019.1
20190423151406 76 312 3.0 9.0 0.00 0.00 0.00 56 1019.0
20190423151306 76 315 3.0 9.0 0.00 0.00 0.00 52 1019.0
20190423151205 76 313 3.0 9.0 0.00 0.00 0.00 50 1019.0
20190423151105 76 313 3.0 9.0 0.00 0.00 0.00 52 1019.1
20190423151006 76 312 2.0 9.0 0.00 0.00 0.00 53 1019.1
20190423150906 76 314 2.0 9.0 0.00 0.00 0.00 52 1019.1
20190423150805 76 311 2.0 9.0 0.00 0.00 0.00 53 1019.1
20190423150705 76 309 2.0 9.0 0.00 0.00 0.00 56 1019.2
20190423150605 76 306 1.0 9.0 0.00 0.00 0.00 54 1019.2
20190423150506 77 304 1.0 9.0 0.00 0.00 0.00 52 1019.2
20190423150406 77 290 1.0 6.0 0.00 0.00 0.00 54 1019.2
20190423150305 77 272 1.0 2.0 0.00 0.00 0.00 54 1019.2
20190423150205 77 280 1.0 3.0 0.00 0.00 0.00 55 1019.2
20190423150105 77 269 1.0 3.0 0.00 0.00 0.00 56 1019.2
20190423150006 76 263 1.0 3.0 0.00 0.00 0.00 60 1019.3
20190423145905 76 258 1.0 4.0 0.00 0.00 0.00 57 1019.2
20190423145806 76 264 1.0 4.0 0.00 0.00 0.00 56 1019.3
20190423145705 76 274 1.0 5.0 0.00 0.00 0.00 57 1019.2
20190423145605 75 273 2.0 5.0 0.00 0.00 0.00 57 1019.2
20190423145506 75 270 2.0 5.0 0.00 0.00 0.00 55 1019.2
20190423145405 75 263 2.0 5.0 0.00 0.00 0.00 56 1019.2
20190423145305 75 252 2.0 5.0 0.00 0.00 0.00 56 1019.2
20190423145205 75 240 2.0 5.0 0.00 0.00 0.00 55 1019.2
20190423145106 75 237 2.0 5.0 0.00 0.00 0.00 57 1019.2
20190423145006 75 231 2.0 5.0 0.00 0.00 0.00 57 1019.2
20190423144905 75 231 2.0 5.0 0.00 0.00 0.00 56 1019.2
20190423144805 75 215 2.0 5.0 0.00 0.00 0.00 55 1019.2
20190423144705 75 209 2.0 5.0 0.00 0.00 0.00 55 1019.2
20190423144605 75 213 2.0 5.0 0.00 0.00 0.00 58 1019.2
20190423144506 75 208 2.0 5.0 0.00 0.00 0.00 55 1019.2
20190423144405 75 214 2.0 5.0 0.00 0.00 0.00 56 1019.2
20190423144305 75 214 2.0 5.0 0.00 0.00 0.00 56 1019.2
20190423144206 74 219 2.0 5.0 0.00 0.00 0.00 63 1019.3
20190423144106 74 217 2.0 5.0 0.00 0.00 0.00 63 1019.3
20190423144005 74 219 2.0 5.0 0.00 0.00 0.00 59 1019.2
20190423143905 74 226 2.0 5.0 0.00 0.00 0.00 58 1019.2
20190423143806 74 242 2.0 4.0 0.00 0.00 0.00 59 1019.3
20190423143705 74 247 1.0 4.0 0.00 0.00 0.00 59 1019.3
20190423143605 74 243 1.0 4.0 0.00 0.00 0.00 57 1019.2
20190423143506 74 257 1.0 4.0 0.00 0.00 0.00 60 1019.3
20190423143406 74 279 2.0 4.0 0.00 0.00 0.00 58 1019.3
20190423143305 74 293 2.0 4.0 0.00 0.00 0.00 58 1019.2
20190423143205 73 312 1.0 4.0 0.00 0.00 0.00 58 1019.3
20190423143105 73 325 2.0 4.0 0.00 0.00 0.00 58 1019.3
20190423143006 73 320 2.0 4.0 0.00 0.00 0.00 59 1019.3
20190423142905 73 317 2.0 4.0 0.00 0.00 0.00 62 1019.3
20190423142805 73 315 2.0 4.0 0.00 0.00 0.00 61 1019.2
20190423142705 73 315 2.0 4.0 0.00 0.00 0.00 60 1019.2
20190423142605 73 319 2.0 4.0 0.00 0.00 0.00 61 1019.2